Wetterdaten: Donnerstag, 17.03.2022
Datum Zeit Temp. Aussen Temp. o. S. Temp +5cm Feuchte Auss Luftdruck Regen Sonnenschein Regendauer Solar Windben Empfang
17.03.2022 00:00 11,1 C 10,6 C 6,7 C 77 % 1021,0 hPa 0,0 l/m 0 min 0 min 0 W/m 19,3 km/h (3 Bft) 97,87 %
17.03.2022 00:02 11,1 C 10,6 C 6,7 C 77 % 1021,0 hPa 0,0 l/m 0 min 0 min 0 W/m 19,3 km/h (3 Bft) 95,45 %
17.03.2022 00:04 11,1 C 10,6 C 6,7 C 77 % 1021,0 hPa 0,0 l/m 0 min 0 min 0 W/m 12,9 km/h (3 Bft) 97,83 %
17.03.2022 00:08 11,1 C 10,6 C 6,7 C 77 % 1021,0 hPa 0,0 l/m 0 min 0 min 0 W/m 19,3 km/h (3 Bft) 97,87 %
17.03.2022 00:10 11,1 C 10,6 C 6,7 C 77 % 1020,9 hPa 0,0 l/m 0 min 0 min 0 W/m 12,9 km/h (3 Bft) 97,87 %
17.03.2022 00:12 11,1 C 10,6 C 6,7 C 77 % 1021,0 hPa 0,0 l/m 0 min 0 min 0 W/m 16,1 km/h (3 Bft) 97,87 %
17.03.2022 00:14 11,1 C 10,0 C 6,7 C 77 % 1020,9 hPa 0,0 l/m 0 min 0 min 0 W/m 12,9 km/h (3 Bft) 97,87 %
17.03.2022 00:16 11,1 C 10,0 C 6,7 C 77 % 1020,8 hPa 0,0 l/m 0 min 0 min 0 W/m 25,7 km/h (4 Bft) 95,65 %
17.03.2022 00:18 11,1 C 10,6 C 6,7 C 77 % 1020,8 hPa 0,0 l/m 0 min 0 min 0 W/m 19,3 km/h (3 Bft) 95,74 %
17.03.2022 00:20 11,1 C 10,6 C 6,7 C 77 % 1020,8 hPa 0,0 l/m 0 min 0 min 0 W/m 19,3 km/h (3 Bft) 95,74 %
17.03.2022 00:22 11,1 C 10,6 C 6,7 C 77 % 1020,8 hPa 0,0 l/m 0 min 0 min 0 W/m 16,1 km/h (3 Bft) 97,87 %
17.03.2022 00:24 11,1 C 10,0 C 6,7 C 77 % 1020,8 hPa 0,0 l/m 0 min 0 min 0 W/m 22,5 km/h (4 Bft) 95,74 %
17.03.2022 00:26 11,1 C 10,0 C 6,7 C 77 % 1020,8 hPa 0,0 l/m 0 min 0 min 0 W/m 22,5 km/h (4 Bft) 95,74 %
17.03.2022 00:28 11,1 C 10,0 C 6,7 C 77 % 1020,8 hPa 0,0 l/m 0 min 0 min 0 W/m 16,1 km/h (3 Bft) 100,00 %
17.03.2022 00:30 11,1 C 10,6 C 6,7 C 77 % 1020,8 hPa 0,0 l/m 0 min 0 min 0 W/m 25,7 km/h (4 Bft) 100,00 %
17.03.2022 00:32 11,1 C 10,0 C 6,7 C 77 % 1020,8 hPa 0,0 l/m 0 min 0 min 0 W/m 16,1 km/h (3 Bft) 100,00 %
17.03.2022 00:34 11,1 C 10,0 C 6,7 C 77 % 1020,8 hPa 0,0 l/m 0 min 0 min 0 W/m 16,1 km/h (3 Bft) 100,00 %
17.03.2022 00:36 11,1 C 10,0 C 6,7 C 77 % 1020,9 hPa 0,0 l/m 0 min 0 min 0 W/m 22,5 km/h (4 Bft) 97,87 %
17.03.2022 00:38 11,0 C 10,0 C 6,7 C 78 % 1020,9 hPa 0,0 l/m 0 min 0 min 0 W/m 19,3 km/h (3 Bft) 97,87 %
17.03.2022 00:40 11,0 C 10,0 C 6,7 C 78 % 1020,9 hPa 0,0 l/m 0 min 0 min 0 W/m 19,3 km/h (3 Bft) 97,73 %
17.03.2022 00:42 11,0 C 10,0 C 6,7 C 78 % 1020,9 hPa 0,0 l/m 0 min 0 min 0 W/m 22,5 km/h (4 Bft) 97,87 %
17.03.2022 00:44 11,0 C 10,0 C 6,7 C 78 % 1020,9 hPa 0,0 l/m 0 min 0 min 0 W/m 12,9 km/h (3 Bft) 97,92 %
17.03.2022 00:46 11,0 C 10,0 C 6,7 C 78 % 1020,9 hPa 0,0 l/m 0 min 0 min 0 W/m 19,3 km/h (3 Bft) 95,83 %
17.03.2022 00:48 11,0 C 10,0 C 6,7 C 78 % 1020,9 hPa 0,0 l/m 0 min 0 min 0 W/m 12,9 km/h (3 Bft) 97,73 %
17.03.2022 00:50 11,0 C 10,0 C 6,7 C 78 % 1020,9 hPa 0,0 l/m 0 min 0 min 0 W/m 19,3 km/h (3 Bft) 97,87 %
17.03.2022 00:52 11,0 C 10,0 C 6,7 C 78 % 1020,8 hPa 0,0 l/m 0 min 0 min 0 W/m 22,5 km/h (4 Bft) 97,87 %
17.03.2022 00:54 11,0 C 10,0 C 6,7 C 78 % 1020,8 hPa 0,0 l/m 0 min 0 min 0 W/m 16,1 km/h (3 Bft) 97,87 %
17.03.2022 00:56 11,0 C 10,0 C 6,7 C 78 % 1020,8 hPa 0,0 l/m 0 min 0 min 0 W/m 19,3 km/h (3 Bft) 97,87 %
17.03.2022 00:58 10,9 C 10,0 C 6,7 C 78 % 1020,8 hPa 0,0 l/m 0 min 0 min 0 W/m 19,3 km/h (3 Bft) 97,87 %
17.03.2022 01:00 10,9 C 10,0 C 6,7 C 78 % 1020,8 hPa 0,0 l/m 0 min 0 min 0 W/m 19,3 km/h (3 Bft) 97,87 %
17.03.2022 01:02 10,9 C 10,0 C 6,7 C 78 % 1020,8 hPa 0,0 l/m 0 min 0 min 0 W/m 22,5 km/h (4 Bft) 95,74 %
17.03.2022 01:04 10,9 C 10,0 C 6,7 C 78 % 1020,7 hPa 0,0 l/m 0 min 0 min 0 W/m 16,1 km/h (3 Bft) 97,83 %
17.03.2022 01:06 10,9 C 10,0 C 6,7 C 78 % 1020,8 hPa 0,0 l/m 0 min 0 min 0 W/m 19,3 km/h (3 Bft) 95,74 %
17.03.2022 01:08 10,9 C 10,0 C 6,7 C 78 % 1020,8 hPa 0,0 l/m 0 min 0 min 0 W/m 12,9 km/h (3 Bft) 97,87 %
17.03.2022 01:10 10,9 C 10,0 C 6,7 C 78 % 1020,8 hPa 0,0 l/m 0 min 0 min 0 W/m 9,7 km/h (2 Bft) 97,87 %
17.03.2022 01:12 10,9 C 10,0 C 6,7 C 78 % 1020,8 hPa 0,0 l/m 0 min 0 min 0 W/m 16,1 km/h (3 Bft) 95,74 %
17.03.2022 01:14 10,9 C 10,0 C 6,7 C 78 % 1020,8 hPa 0,0 l/m 0 min 0 min 0 W/m 19,3 km/h (3 Bft) 97,87 %
17.03.2022 01:16 10,9 C 10,0 C 6,7 C 78 % 1020,8 hPa 0,0 l/m 0 min 0 min 0 W/m 12,9 km/h (3 Bft) 97,83 %
17.03.2022 01:18 10,9 C 10,0 C 6,7 C 78 % 1020,8 hPa 0,0 l/m 0 min 0 min 0 W/m 16,1 km/h (3 Bft) 95,74 %
17.03.2022 01:20 10,9 C 10,0 C 6,7 C 78 % 1020,9 hPa 0,0 l/m 0 min 0 min 0 W/m 22,5 km/h (4 Bft) 97,87 %
17.03.2022 01:22 10,9 C 10,0 C 6,7 C 78 % 1020,8 hPa 0,0 l/m 0 min 0 min 0 W/m 19,3 km/h (3 Bft) 93,62 %
17.03.2022 01:24 10,9 C 10,0 C 6,7 C 78 % 1020,9 hPa 0,0 l/m 0 min 0 min 0 W/m 25,7 km/h (4 Bft) 100,00 %
17.03.2022 01:26 10,9 C 10,0 C 6,7 C 78 % 1020,8 hPa 0,0 l/m 0 min 0 min 0 W/m 22,5 km/h (4 Bft) 100,00 %
17.03.2022 01:28 10,9 C 10,0 C 6,7 C 78 % 1020,9 hPa 0,0 l/m 0 min 0 min 0 W/m 16,1 km/h (3 Bft) 97,83 %
17.03.2022 01:30 10,9 C 10,0 C 6,7 C 78 % 1020,8 hPa 0,0 l/m 0 min 0 min 0 W/m 19,3 km/h (3 Bft) 100,00 %
17.03.2022 01:32 10,9 C 10,0 C 6,7 C 78 % 1020,9 hPa 0,0 l/m 0 min 0 min 0 W/m 16,1 km/h (3 Bft) 97,87 %
17.03.2022 01:34 10,9 C 10,0 C 6,7 C 78 % 1020,9 hPa 0,0 l/m 0 min 0 min 0 W/m 22,5 km/h (4 Bft) 97,87 %
17.03.2022 01:36 10,9 C 10,0 C 6,7 C 78 % 1020,9 hPa 0,0 l/m 0 min 0 min 0 W/m 22,5 km/h (4 Bft) 100,00 %
17.03.2022 01:38 10,9 C 10,0 C 6,7 C 78 % 1020,9 hPa 0,0 l/m 0 min 0 min 0 W/m 16,1 km/h (3 Bft) 100,00 %
17.03.2022 01:40 10,9 C 10,0 C 6,7 C 78 % 1020,9 hPa 0,0 l/m 0 min 0 min 0 W/m 19,3 km/h (3 Bft) 97,83 %
17.03.2022 01:42 10,9 C 10,0 C 6,7 C 78 % 1020,9 hPa 0,0 l/m 0 min 0 min 0 W/m 12,9 km/h (3 Bft) 97,87 %
17.03.2022 01:44 10,9 C 10,0 C 6,7 C 78 % 1020,8 hPa 0,0 l/m 0 min 0 min 0 W/m 19,3 km/h (3 Bft) 95,74 %
17.03.2022 01:46 10,9 C 10,0 C 6,7 C 78 % 1020,8 hPa 0,0 l/m 0 min 0 min 0 W/m 16,1 km/h (3 Bft) 100,00 %
17.03.2022 01:48 10,9 C 10,0 C 6,7 C 78 % 1020,8 hPa 0,0 l/m 0 min 0 min 0 W/m 25,7 km/h (4 Bft) 100,00 %
17.03.2022 01:50 10,9 C 10,0 C 6,7 C 78 % 1020,7 hPa 0,0 l/m 0 min 0 min 0 W/m 29,0 km/h (5 Bft) 97,83 %
17.03.2022 01:52 10,9 C 10,0 C 6,7 C 78 % 1020,7 hPa 0,0 l/m 0 min 0 min 0 W/m 19,3 km/h (3 Bft) 93,62 %
17.03.2022 01:54 10,9 C 10,0 C 6,7 C 78 % 1020,7 hPa 0,0 l/m 0 min 0 min 0 W/m 22,5 km/h (4 Bft) 97,87 %
17.03.2022 01:56 10,9 C 10,0 C 6,7 C 78 % 1020,7 hPa 0,0 l/m 0 min 0 min 0 W/m 16,1 km/h (3 Bft) 95,74 %
17.03.2022 01:58 10,9 C 10,0 C 6,7 C 78 % 1020,7 hPa 0,0 l/m 0 min 0 min 0 W/m 19,3 km/h (3 Bft) 95,74 %
17.03.2022 02:00 10,9 C 10,0 C 6,7 C 78 % 1020,7 hPa 0,0 l/m 0 min 0 min 0 W/m 16,1 km/h (3 Bft) 93,62 %
17.03.2022 02:02 10,9 C 10,0 C 6,7 C 78 % 1020,7 hPa 0,0 l/m 0 min 0 min 0 W/m 19,3 km/h (3 Bft) 95,65 %
17.03.2022 02:04 10,9 C 10,0 C 6,7 C 78 % 1020,6 hPa 0,0 l/m 0 min 0 min 0 W/m 16,1 km/h (3 Bft) 95,74 %
17.03.2022 02:06 10,9 C 10,0 C 6,7 C 78 % 1020,7 hPa 0,0 l/m 0 min 0 min 0 W/m 19,3 km/h (3 Bft) 95,74 %
17.03.2022 02:08 10,8 C 10,0 C 6,7 C 78 % 1020,7 hPa 0,0 l/m 0 min 0 min 0 W/m 16,1 km/h (3 Bft) 95,74 %
17.03.2022 02:10 10,8 C 10,0 C 6,7 C 78 % 1020,7 hPa 0,0 l/m 0 min 0 min 0 W/m 19,3 km/h (3 Bft) 95,74 %
17.03.2022 02:12 10,8 C 10,0 C 6,7 C 78 % 1020,7 hPa 0,0 l/m 0 min 0 min 0 W/m 12,9 km/h (3 Bft) 93,62 %
17.03.2022 02:14 10,8 C 10,0 C 6,7 C 78 % 1020,7 hPa 0,0 l/m 0 min 0 min 0 W/m 16,1 km/h (3 Bft) 95,65 %
17.03.2022 02:16 10,8 C 10,0 C 6,7 C 78 % 1020,7 hPa 0,0 l/m 0 min 0 min 0 W/m 19,3 km/h (3 Bft) 93,62 %
17.03.2022 02:18 10,8 C 10,0 C 6,7 C 78 % 1020,7 hPa 0,0 l/m 0 min 0 min 0 W/m 16,1 km/h (3 Bft) 95,74 %
17.03.2022 02:20 10,8 C 10,0 C 6,7 C 78 % 1020,7 hPa 0,0 l/m 0 min 0 min 0 W/m 16,1 km/h (3 Bft) 95,74 %
17.03.2022 02:22 10,8 C 10,0 C 6,7 C 78 % 1020,7 hPa 0,0 l/m 0 min 0 min 0 W/m 12,9 km/h (3 Bft) 97,87 %
17.03.2022 02:24 10,8 C 10,0 C 6,7 C 78 % 1020,7 hPa 0,0 l/m 0 min 0 min 0 W/m 19,3 km/h (3 Bft) 97,87 %
17.03.2022 02:26 10,8 C 10,0 C 6,7 C 78 % 1020,7 hPa 0,0 l/m 0 min 0 min 0 W/m 16,1 km/h (3 Bft) 97,83 %
17.03.2022 02:28 10,8 C 10,0 C 6,7 C 78 % 1020,7 hPa 0,0 l/m 0 min 0 min 0 W/m 19,3 km/h (3 Bft) 97,87 %
17.03.2022 02:30 10,8 C 10,0 C 6,7 C 78 % 1020,7 hPa 0,0 l/m 0 min 0 min 0 W/m 19,3 km/h (3 Bft) 97,87 %
17.03.2022 02:32 10,8 C 10,0 C 6,7 C 78 % 1020,7 hPa 0,0 l/m 0 min 0 min 0 W/m 12,9 km/h (3 Bft) 95,74 %
17.03.2022 02:34 10,8 C 10,0 C 6,7 C 78 % 1020,6 hPa 0,0 l/m 0 min 0 min 0 W/m 19,3 km/h (3 Bft) 97,87 %
17.03.2022 02:36 10,8 C 10,0 C 6,7 C 78 % 1020,6 hPa 0,0 l/m 0 min 0 min 0 W/m 16,1 km/h (3 Bft) 97,87 %
17.03.2022 02:38 10,8 C 10,0 C 6,7 C 78 % 1020,6 hPa 0,0 l/m 0 min 0 min 0 W/m 22,5 km/h (4 Bft) 97,83 %
17.03.2022 02:40 10,8 C 10,0 C 6,7 C 78 % 1020,7 hPa 0,0 l/m 0 min 0 min 0 W/m 12,9 km/h (3 Bft) 100,00 %
17.03.2022 02:42 10,8 C 10,0 C 6,7 C 78 % 1020,6 hPa 0,0 l/m 0 min 0 min 0 W/m 12,9 km/h (3 Bft) 100,00 %
17.03.2022 02:44 10,8 C 10,0 C 6,7 C 78 % 1020,7 hPa 0,0 l/m 0 min 0 min 0 W/m 16,1 km/h (3 Bft) 100,00 %
17.03.2022 02:46 10,8 C 10,0 C 6,7 C 78 % 1020,7 hPa 0,0 l/m 0 min 0 min 0 W/m 12,9 km/h (3 Bft) 100,00 %
17.03.2022 02:48 10,8 C 10,0 C 6,7 C 78 % 1020,7 hPa 0,0 l/m 0 min 0 min 0 W/m 16,1 km/h (3 Bft) 100,00 %
17.03.2022 02:50 10,8 C 10,0 C 6,7 C 78 % 1020,7 hPa 0,0 l/m 0 min 0 min 0 W/m 16,1 km/h (3 Bft) 100,00 %
17.03.2022 02:52 10,8 C 10,0 C 6,7 C 78 % 1020,7 hPa 0,0 l/m 0 min 0 min 0 W/m 22,5 km/h (4 Bft) 100,00 %
17.03.2022 02:54 10,8 C 10,0 C 6,7 C 78 % 1020,7 hPa 0,0 l/m 0 min 0 min 0 W/m 22,5 km/h (4 Bft) 100,00 %
17.03.2022 02:56 10,8 C 10,0 C 6,7 C 78 % 1020,7 hPa 0,0 l/m 0 min 0 min 0 W/m 19,3 km/h (3 Bft) 100,00 %
17.03.2022 02:58 10,8 C 10,0 C 6,7 C 78 % 1020,7 hPa 0,0 l/m 0 min 0 min 0 W/m 19,3 km/h (3 Bft) 100,00 %
17.03.2022 03:00 10,8 C 10,0 C 6,7 C 78 % 1020,7 hPa 0,0 l/m 0 min 0 min 0 W/m 19,3 km/h (3 Bft) 100,00 %
17.03.2022 03:02 10,8 C 10,0 C 6,7 C 78 % 1020,7 hPa 0,0 l/m 0 min 0 min 0 W/m 19,3 km/h (3 Bft) 100,00 %
17.03.2022 03:04 10,8 C 10,0 C 6,7 C 78 % 1020,7 hPa 0,0 l/m 0 min 0 min 0 W/m 16,1 km/h (3 Bft) 100,00 %
17.03.2022 03:06 10,8 C 10,0 C 6,7 C 78 % 1020,7 hPa 0,0 l/m 0 min 0 min 0 W/m 22,5 km/h (4 Bft) 100,00 %
17.03.2022 03:08 10,9 C 10,0 C 6,7 C 78 % 1020,7 hPa 0,0 l/m 0 min 0 min 0 W/m 25,7 km/h (4 Bft) 100,00 %
17.03.2022 03:10 10,9 C 10,0 C 6,7 C 78 % 1020,8 hPa 0,0 l/m 0 min 0 min 0 W/m 12,9 km/h (3 Bft) 100,00 %
17.03.2022 03:12 10,9 C 10,0 C 6,7 C 78 % 1020,8 hPa 0,0 l/m 0 min 0 min 0 W/m 16,1 km/h (3 Bft) 100,00 %
17.03.2022 03:14 10,9 C 10,0 C 6,7 C 78 % 1020,8 hPa 0,0 l/m 0 min 0 min 0 W/m 22,5 km/h (4 Bft) 97,83 %
17.03.2022 03:16 10,9 C 10,0 C 6,7 C 78 % 1020,7 hPa 0,0 l/m 0 min 0 min 0 W/m 19,3 km/h (3 Bft) 100,00 %
17.03.2022 03:18 10,9 C 10,0 C 6,7 C 78 % 1020,7 hPa 0,0 l/m 0 min 0 min 0 W/m 16,1 km/h (3 Bft) 100,00 %
17.03.2022 03:20 10,9 C 10,0 C 6,7 C 78 % 1020,6 hPa 0,0 l/m 0 min 0 min 0 W/m 19,3 km/h (3 Bft) 100,00 %
17.03.2022 03:22 10,9 C 10,0 C 6,7 C 78 % 1020,7 hPa 0,0 l/m 0 min 0 min 0 W/m 25,7 km/h (4 Bft) 97,87 %
17.03.2022 03:24 10,9 C 10,0 C 6,7 C 78 % 1020,7 hPa 0,0 l/m 0 min 0 min 0 W/m 16,1 km/h (3 Bft) 100,00 %
17.03.2022 03:26 10,9 C 10,0 C 6,7 C 78 % 1020,7 hPa 0,0 l/m 0 min 0 min 0 W/m 19,3 km/h (3 Bft) 100,00 %
17.03.2022 03:28 10,9 C 10,0 C 6,7 C 78 % 1020,7 hPa 0,0 l/m 0 min 0 min 0 W/m 16,1 km/h (3 Bft) 97,87 %
17.03.2022 03:30 10,9 C 10,0 C 6,7 C 78 % 1020,7 hPa 0,0 l/m 0 min 0 min 0 W/m 19,3 km/h (3 Bft) 95,74 %
17.03.2022 03:32 10,9 C 10,0 C 6,7 C 78 % 1020,6 hPa 0,0 l/m 0 min 0 min 0 W/m 16,1 km/h (3 Bft) 97,87 %
17.03.2022 03:34 10,9 C 10,0 C 6,7 C 78 % 1020,7 hPa 0,0 l/m 0 min 0 min 0 W/m 19,3 km/h (3 Bft) 97,87 %
17.03.2022 03:36 10,9 C 10,0 C 6,7 C 78 % 1020,7 hPa 0,0 l/m 0 min 0 min 0 W/m 22,5 km/h (4 Bft) 95,74 %
17.03.2022 03:38 10,9 C 10,0 C 6,7 C 78 % 1020,7 hPa 0,0 l/m 0 min 0 min 0 W/m 16,1 km/h (3 Bft) 97,83 %
17.03.2022 03:40 10,9 C 10,0 C 6,7 C 78 % 1020,8 hPa 0,0 l/m 0 min 0 min 0 W/m 22,5 km/h (4 Bft) 97,87 %
17.03.2022 03:42 10,9 C 10,0 C 6,7 C 78 % 1020,7 hPa 0,0 l/m 0 min 0 min 0 W/m 19,3 km/h (3 Bft) 97,83 %
17.03.2022 03:44 10,9 C 10,0 C 6,7 C 78 % 1020,7 hPa 0,0 l/m 0 min 0 min 0 W/m 35,4 km/h (5 Bft) 97,87 %
17.03.2022 03:46 10,9 C 10,0 C 6,7 C 78 % 1020,7 hPa 0,0 l/m 0 min 0 min 0 W/m 19,3 km/h (3 Bft) 95,74 %
17.03.2022 03:48 10,9 C 10,0 C 6,7 C 78 % 1020,7 hPa 0,0 l/m 0 min 0 min 0 W/m 16,1 km/h (3 Bft) 95,65 %
17.03.2022 03:50 10,9 C 10,0 C 6,7 C 78 % 1020,7 hPa 0,0 l/m 0 min 0 min 0 W/m 22,5 km/h (4 Bft) 95,74 %
17.03.2022 03:52 10,9 C 10,0 C 6,7 C 78 % 1020,7 hPa 0,0 l/m 0 min 0 min 0 W/m 16,1 km/h (3 Bft) 95,74 %
17.03.2022 03:54 10,9 C 10,0 C 6,7 C 78 % 1020,7 hPa 0,0 l/m 0 min 0 min 0 W/m 12,9 km/h (3 Bft) 97,87 %
17.03.2022 03:56 10,9 C 10,0 C 6,7 C 78 % 1020,7 hPa 0,0 l/m 0 min 0 min 0 W/m 19,3 km/h (3 Bft) 95,74 %
17.03.2022 03:58 10,9 C 10,0 C 6,7 C 78 % 1020,7 hPa 0,0 l/m 0 min 0 min 0 W/m 16,1 km/h (3 Bft) 93,62 %
17.03.2022 04:00 10,9 C 10,0 C 6,7 C 78 % 1020,7 hPa 0,0 l/m 0 min 0 min 0 W/m 19,3 km/h (3 Bft) 95,65 %
17.03.2022 04:02 10,9 C 10,0 C 6,7 C 78 % 1020,6 hPa 0,0 l/m 0 min 0 min 0 W/m 19,3 km/h (3 Bft) 100,00 %
17.03.2022 04:04 10,9 C 10,0 C 6,7 C 78 % 1020,7 hPa 0,0 l/m 0 min 0 min 0 W/m 19,3 km/h (3 Bft) 95,74 %
17.03.2022 04:06 10,9 C 10,0 C 6,7 C 78 % 1020,6 hPa 0,0 l/m 0 min 0 min 0 W/m 22,5 km/h (4 Bft) 97,87 %
17.03.2022 04:08 10,9 C 10,0 C 6,7 C 78 % 1020,7 hPa 0,0 l/m 0 min 0 min 0 W/m 19,3 km/h (3 Bft) 95,74 %
17.03.2022 04:10 10,9 C 10,0 C 6,7 C 78 % 1020,6 hPa 0,0 l/m 0 min 0 min 0 W/m 19,3 km/h (3 Bft) 97,87 %
17.03.2022 04:12 10,9 C 10,0 C 6,7 C 78 % 1020,7 hPa 0,0 l/m 0 min 0 min 0 W/m 16,1 km/h (3 Bft) 95,65 %
17.03.2022 04:14 10,9 C 10,0 C 6,7 C 78 % 1020,7 hPa 0,0 l/m 0 min 0 min 0 W/m 12,9 km/h (3 Bft) 95,74 %
17.03.2022 04:16 10,8 C 10,0 C 6,7 C 78 % 1020,8 hPa 0,0 l/m 0 min 0 min 0 W/m 12,9 km/h (3 Bft) 97,87 %
17.03.2022 04:18 10,8 C 10,0 C 6,7 C 79 % 1020,9 hPa 0,0 l/m 0 min 0 min 0 W/m 19,3 km/h (3 Bft) 97,87 %
17.03.2022 04:20 10,8 C 10,0 C 6,7 C 79 % 1020,9 hPa 0,0 l/m 0 min 0 min 0 W/m 12,9 km/h (3 Bft) 97,87 %
17.03.2022 04:22 10,8 C 10,0 C 6,7 C 79 % 1020,9 hPa 0,0 l/m 0 min 0 min 0 W/m 16,1 km/h (3 Bft) 97,87 %
17.03.2022 04:24 10,8 C 10,0 C 6,7 C 79 % 1021,0 hPa 0,0 l/m 0 min 0 min 0 W/m 12,9 km/h (3 Bft) 50,00 %
17.03.2022 04:26 10,8 C 10,0 C 6,7 C 79 % 1021,0 hPa 0,0 l/m 0 min 0 min 0 W/m 19,3 km/h (3 Bft) 97,87 %
17.03.2022 04:28 10,8 C 10,0 C 6,7 C 79 % 1021,1 hPa 0,0 l/m 0 min 0 min 0 W/m 12,9 km/h (3 Bft) 100,00 %
17.03.2022 04:30 10,8 C 10,0 C 6,7 C 79 % 1021,1 hPa 0,0 l/m 0 min 0 min 0 W/m 12,9 km/h (3 Bft) 97,87 %
17.03.2022 04:32 10,8 C 10,0 C 6,7 C 79 % 1021,2 hPa 0,0 l/m 0 min 0 min 0 W/m 12,9 km/h (3 Bft) 95,74 %
17.03.2022 04:34 10,8 C 10,0 C 6,7 C 79 % 1021,2 hPa 0,0 l/m 0 min 0 min 0 W/m 12,9 km/h (3 Bft) 100,00 %
17.03.2022 04:36 10,8 C 10,0 C 6,7 C 79 % 1021,2 hPa 0,0 l/m 0 min 0 min 0 W/m 12,9 km/h (3 Bft) 97,83 %
17.03.2022 04:38 10,8 C 10,0 C 6,1 C 79 % 1021,2 hPa 0,0 l/m 0 min 0 min 0 W/m 12,9 km/h (3 Bft) 97,87 %
17.03.2022 04:40 10,8 C 10,0 C 6,1 C 79 % 1021,3 hPa 0,0 l/m 0 min 0 min 0 W/m 16,1 km/h (3 Bft) 97,87 %
17.03.2022 04:42 10,8 C 10,0 C 6,1 C 79 % 1021,3 hPa 0,0 l/m 0 min 0 min 0 W/m 9,7 km/h (2 Bft) 97,87 %
17.03.2022 04:44 10,8 C 10,0 C 6,1 C 79 % 1021,3 hPa 0,0 l/m 0 min 0 min 0 W/m 6,4 km/h (2 Bft) 97,87 %
17.03.2022 04:46 10,7 C 10,0 C 6,1 C 80 % 1021,4 hPa 0,0 l/m 0 min 0 min 0 W/m 16,1 km/h (3 Bft) 97,87 %
17.03.2022 04:48 10,7 C 10,0 C 6,1 C 80 % 1021,4 hPa 0,0 l/m 0 min 0 min 0 W/m 12,9 km/h (3 Bft) 95,74 %
17.03.2022 04:50 10,7 C 10,0 C 6,1 C 80 % 1021,4 hPa 0,0 l/m 0 min 0 min 0 W/m 12,9 km/h (3 Bft) 97,87 %
17.03.2022 04:52 10,7 C 10,0 C 5,6 C 80 % 1021,5 hPa 0,0 l/m 0 min 0 min 0 W/m 19,3 km/h (3 Bft) 97,87 %
17.03.2022 04:54 10,7 C 10,0 C 5,6 C 81 % 1021,5 hPa 0,0 l/m 0 min 2 min 0 W/m 16,1 km/h (3 Bft) 97,87 %
17.03.2022 04:56 10,7 C 9,4 C 5,6 C 81 % 1021,5 hPa 0,0 l/m 0 min 2 min 0 W/m 9,7 km/h (2 Bft) 97,87 %
17.03.2022 04:58 10,7 C 9,4 C 5,6 C 81 % 1021,6 hPa 0,0 l/m 0 min 2 min 0 W/m 9,7 km/h (2 Bft) 97,83 %
17.03.2022 05:00 10,6 C 9,4 C 5,0 C 82 % 1021,6 hPa 0,0 l/m 0 min 2 min 0 W/m 9,7 km/h (2 Bft) 95,74 %
17.03.2022 05:02 10,6 C 9,4 C 5,0 C 82 % 1021,6 hPa 0,0 l/m 0 min 2 min 0 W/m 16,1 km/h (3 Bft) 95,74 %
17.03.2022 05:04 10,6 C 9,4 C 5,0 C 82 % 1021,7 hPa 0,0 l/m 0 min 2 min 0 W/m 6,4 km/h (2 Bft) 97,87 %
17.03.2022 05:06 10,6 C 9,4 C 5,0 C 83 % 1021,8 hPa 0,0 l/m 0 min 2 min 0 W/m 12,9 km/h (3 Bft) 97,87 %
17.03.2022 05:08 10,5 C 9,4 C 5,0 C 83 % 1021,7 hPa 0,0 l/m 0 min 2 min 0 W/m 12,9 km/h (3 Bft) 97,87 %
17.03.2022 05:10 10,5 C 9,4 C 5,0 C 83 % 1021,8 hPa 0,0 l/m 0 min 2 min 0 W/m 9,7 km/h (2 Bft) 97,83 %
17.03.2022 05:12 10,4 C 9,4 C 5,0 C 84 % 1021,8 hPa 0,0 l/m 0 min 2 min 0 W/m 9,7 km/h (2 Bft) 97,87 %
17.03.2022 05:14 10,4 C 9,4 C 5,0 C 84 % 1021,9 hPa 0,0 l/m 0 min 2 min 0 W/m 12,9 km/h (3 Bft) 95,74 %
17.03.2022 05:16 10,4 C 9,4 C 5,0 C 84 % 1021,9 hPa 0,0 l/m 0 min 2 min 0 W/m 12,9 km/h (3 Bft) 97,87 %
17.03.2022 05:18 10,3 C 9,4 C 5,0 C 84 % 1021,9 hPa 0,0 l/m 0 min 2 min 0 W/m 6,4 km/h (2 Bft) 97,87 %
17.03.2022 05:20 10,3 C 9,4 C 5,0 C 84 % 1021,9 hPa 0,2 l/m 0 min 2 min 0 W/m 6,4 km/h (2 Bft) 97,83 %
17.03.2022 05:22 10,3 C 8,9 C 5,0 C 85 % 1022,0 hPa 0,0 l/m 0 min 2 min 0 W/m 12,9 km/h (3 Bft) 95,74 %
17.03.2022 05:24 10,3 C 8,9 C 5,0 C 85 % 1022,0 hPa 0,0 l/m 0 min 2 min 0 W/m 6,4 km/h (2 Bft) 100,00 %
17.03.2022 05:26 10,2 C 8,9 C 5,0 C 85 % 1022,0 hPa 0,0 l/m 0 min 2 min 0 W/m 6,4 km/h (2 Bft) 100,00 %
17.03.2022 05:28 10,2 C 8,9 C 4,4 C 85 % 1022,0 hPa 0,0 l/m 0 min 2 min 0 W/m 9,7 km/h (2 Bft) 97,87 %
17.03.2022 05:30 10,2 C 8,9 C 4,4 C 86 % 1022,0 hPa 0,0 l/m 0 min 2 min 0 W/m 6,4 km/h (2 Bft) 100,00 %
17.03.2022 05:32 10,2 C 8,9 C 4,4 C 86 % 1022,0 hPa 0,0 l/m 0 min 2 min 0 W/m 6,4 km/h (2 Bft) 100,00 %
17.03.2022 05:34 10,1 C 8,9 C 4,4 C 86 % 1022,0 hPa 0,0 l/m 0 min 2 min 0 W/m 6,4 km/h (2 Bft) 97,87 %
17.03.2022 05:36 10,1 C 8,9 C 4,4 C 86 % 1022,1 hPa 0,2 l/m 0 min 2 min 0 W/m 9,7 km/h (2 Bft) 100,00 %
17.03.2022 05:38 10,1 C 8,9 C 4,4 C 86 % 1022,1 hPa 0,0 l/m 0 min 2 min 0 W/m 6,4 km/h (2 Bft) 100,00 %
17.03.2022 05:40 10,1 C 8,9 C 4,4 C 87 % 1022,2 hPa 0,0 l/m 0 min 2 min 0 W/m 6,4 km/h (2 Bft) 97,87 %
17.03.2022 05:42 10,0 C 8,9 C 4,4 C 87 % 1022,2 hPa 0,0 l/m 0 min 2 min 0 W/m 0,0 km/h (0 Bft) 97,87 %
17.03.2022 05:44 10,0 C 8,3 C 4,4 C 87 % 1022,2 hPa 0,0 l/m 0 min 2 min 0 W/m 9,7 km/h (2 Bft) 95,65 %
17.03.2022 05:46 9,9 C 8,3 C 4,4 C 88 % 1022,2 hPa 0,2 l/m 0 min 2 min 0 W/m 6,4 km/h (2 Bft) 97,87 %
17.03.2022 05:48 9,9 C 8,3 C 4,4 C 88 % 1022,4 hPa 0,0 l/m 0 min 2 min 0 W/m 6,4 km/h (2 Bft) 97,87 %
17.03.2022 05:50 9,9 C 8,3 C 4,4 C 88 % 1022,3 hPa 0,0 l/m 0 min 2 min 0 W/m 9,7 km/h (2 Bft) 97,87 %
17.03.2022 05:52 9,9 C 8,3 C 4,4 C 88 % 1022,4 hPa 0,0 l/m 0 min 2 min 0 W/m 6,4 km/h (2 Bft) 95,74 %
17.03.2022 05:54 9,8 C 8,3 C 4,4 C 89 % 1022,4 hPa 0,0 l/m 0 min 2 min 0 W/m 3,2 km/h (1 Bft) 97,87 %
17.03.2022 05:56 9,8 C 8,3 C 4,4 C 89 % 1022,5 hPa 0,2 l/m 0 min 2 min 0 W/m 6,4 km/h (2 Bft) 97,83 %
17.03.2022 05:58 9,8 C 8,3 C 4,4 C 89 % 1022,5 hPa 0,0 l/m 0 min 2 min 0 W/m 3,2 km/h (1 Bft) 95,74 %
17.03.2022 06:00 9,8 C 8,3 C 4,4 C 89 % 1022,6 hPa 0,0 l/m 0 min 2 min 0 W/m 6,4 km/h (2 Bft) 97,87 %
17.03.2022 06:02 9,8 C 8,3 C 4,4 C 89 % 1022,6 hPa 0,0 l/m 0 min 2 min 0 W/m 6,4 km/h (2 Bft) 97,87 %
17.03.2022 06:04 9,7 C 8,3 C 5,0 C 90 % 1022,7 hPa 0,0 l/m 0 min 2 min 0 W/m 9,7 km/h (2 Bft) 97,87 %
17.03.2022 06:08 9,7 C 8,3 C 5,0 C 90 % 1022,8 hPa 0,0 l/m 0 min 0 min 0 W/m 6,4 km/h (2 Bft) 97,85 %
17.03.2022 06:10 9,7 C 8,3 C 5,0 C 90 % 1022,9 hPa 0,0 l/m 0 min 0 min 0 W/m 9,7 km/h (2 Bft) 97,87 %
17.03.2022 06:12 9,7 C 8,3 C 5,0 C 91 % 1023,0 hPa 0,0 l/m 0 min 0 min 0 W/m 12,9 km/h (3 Bft) 97,87 %
17.03.2022 06:14 9,7 C 8,3 C 5,0 C 91 % 1023,0 hPa 0,0 l/m 0 min 2 min 0 W/m 6,4 km/h (2 Bft) 93,62 %
17.03.2022 06:16 9,7 C 8,3 C 5,0 C 91 % 1023,1 hPa 0,0 l/m 0 min 2 min 0 W/m 6,4 km/h (2 Bft) 97,87 %
17.03.2022 06:18 9,7 C 8,3 C 5,0 C 91 % 1023,2 hPa 0,2 l/m 0 min 0 min 0 W/m 6,4 km/h (2 Bft) 100,00 %
17.03.2022 06:20 9,7 C 8,9 C 5,0 C 92 % 1023,3 hPa 0,0 l/m 0 min 0 min 0 W/m 9,7 km/h (2 Bft) 97,83 %
17.03.2022 06:22 9,8 C 8,9 C 5,0 C 92 % 1023,2 hPa 0,0 l/m 0 min 0 min 0 W/m 16,1 km/h (3 Bft) 100,00 %
17.03.2022 06:24 9,8 C 8,9 C 5,0 C 93 % 1023,3 hPa 0,0 l/m 0 min 0 min 0 W/m 12,9 km/h (3 Bft) 97,87 %
17.03.2022 06:26 9,8 C 8,9 C 5,0 C 93 % 1023,3 hPa 0,0 l/m 0 min 0 min 0 W/m 16,1 km/h (3 Bft) 97,87 %
17.03.2022 06:28 9,9 C 8,9 C 5,0 C 93 % 1023,4 hPa 0,0 l/m 0 min 0 min 0 W/m 12,9 km/h (3 Bft) 97,87 %
17.03.2022 06:30 9,9 C 8,9 C 5,0 C 94 % 1023,4 hPa 0,0 l/m 0 min 0 min 0 W/m 12,9 km/h (3 Bft) 97,87 %
17.03.2022 06:32 9,8 C 8,9 C 5,0 C 94 % 1023,4 hPa 0,0 l/m 0 min 0 min 0 W/m 12,9 km/h (3 Bft) 97,83 %
17.03.2022 06:34 9,8 C 8,9 C 5,0 C 94 % 1023,5 hPa 0,0 l/m 0 min 0 min 0 W/m 12,9 km/h (3 Bft) 95,74 %
17.03.2022 06:36 9,8 C 8,9 C 5,0 C 94 % 1023,5 hPa 0,0 l/m 0 min 0 min 0 W/m 16,1 km/h (3 Bft) 95,74 %
17.03.2022 06:38 9,7 C 8,9 C 5,0 C 94 % 1023,6 hPa 0,0 l/m 0 min 0 min 0 W/m 12,9 km/h (3 Bft) 97,87 %
17.03.2022 06:40 9,7 C 8,9 C 5,0 C 94 % 1023,6 hPa 0,0 l/m 0 min 0 min 0 W/m 16,1 km/h (3 Bft) 97,87 %
17.03.2022 06:42 9,6 C 8,3 C 5,0 C 94 % 1023,7 hPa 0,0 l/m 0 min 0 min 0 W/m 16,1 km/h (3 Bft) 97,87 %
17.03.2022 06:44 9,6 C 8,3 C 5,0 C 94 % 1023,7 hPa 0,0 l/m 0 min 0 min 0 W/m 19,3 km/h (3 Bft) 95,65 %
17.03.2022 06:46 9,5 C 8,3 C 5,0 C 95 % 1023,8 hPa 0,0 l/m 0 min 0 min 0 W/m 16,1 km/h (3 Bft) 97,87 %
17.03.2022 06:48 9,5 C 8,3 C 5,0 C 95 % 1023,9 hPa 0,0 l/m 0 min 0 min 0 W/m 12,9 km/h (3 Bft) 95,74 %
17.03.2022 06:50 9,4 C 8,3 C 5,0 C 95 % 1023,9 hPa 0,0 l/m 0 min 0 min 0 W/m 19,3 km/h (3 Bft) 97,87 %
17.03.2022 06:52 9,4 C 8,3 C 5,0 C 95 % 1024,0 hPa 0,0 l/m 0 min 0 min 0 W/m 22,5 km/h (4 Bft) 95,74 %
17.03.2022 06:54 9,3 C 8,3 C 5,0 C 95 % 1024,0 hPa 0,0 l/m 0 min 0 min 0 W/m 12,9 km/h (3 Bft) 97,83 %
17.03.2022 06:56 9,3 C 8,3 C 5,0 C 95 % 1024,1 hPa 0,0 l/m 0 min 0 min 0 W/m 19,3 km/h (3 Bft) 95,74 %
17.03.2022 06:58 9,3 C 8,3 C 5,0 C 95 % 1024,2 hPa 0,0 l/m 0 min 0 min 0 W/m 16,1 km/h (3 Bft) 95,74 %
17.03.2022 07:00 9,2 C 8,3 C 5,0 C 95 % 1024,2 hPa 0,0 l/m 0 min 0 min 0 W/m 16,1 km/h (3 Bft) 97,87 %
17.03.2022 07:02 9,2 C 8,3 C 5,0 C 95 % 1024,2 hPa 0,0 l/m 0 min 0 min 0 W/m 25,7 km/h (4 Bft) 95,74 %
17.03.2022 07:04 9,2 C 8,3 C 5,0 C 95 % 1024,4 hPa 0,0 l/m 0 min 0 min 0 W/m 19,3 km/h (3 Bft) 97,87 %
17.03.2022 07:06 9,1 C 8,3 C 5,0 C 95 % 1024,4 hPa 0,0 l/m 0 min 0 min 0 W/m 16,1 km/h (3 Bft) 95,65 %
17.03.2022 07:08 9,1 C 8,3 C 5,0 C 95 % 1024,4 hPa 0,0 l/m 0 min 0 min 0 W/m 12,9 km/h (3 Bft) 93,62 %
17.03.2022 07:10 9,0 C 8,3 C 5,0 C 95 % 1024,6 hPa 0,0 l/m 0 min 0 min 0 W/m 25,7 km/h (4 Bft) 91,49 %
17.03.2022 07:12 8,9 C 8,3 C 4,4 C 95 % 1024,7 hPa 0,0 l/m 0 min 0 min 0 W/m 19,3 km/h (3 Bft) 95,74 %
17.03.2022 07:14 8,9 C 8,3 C 5,0 C 95 % 1024,7 hPa 0,0 l/m 0 min 0 min 0 W/m 16,1 km/h (3 Bft) 95,74 %
17.03.2022 07:16 8,9 C 8,3 C 4,4 C 96 % 1024,7 hPa 0,0 l/m 0 min 0 min 0 W/m 16,1 km/h (3 Bft) 91,49 %
17.03.2022 07:18 8,9 C 8,3 C 4,4 C 96 % 1024,9 hPa 0,0 l/m 0 min 0 min 0 W/m 16,1 km/h (3 Bft) 95,65 %
17.03.2022 07:20 8,8 C 8,3 C 4,4 C 96 % 1025,0 hPa 0,0 l/m 0 min 0 min 0 W/m 19,3 km/h (3 Bft) 97,87 %
17.03.2022 07:22 8,8 C 8,3 C 4,4 C 96 % 1025,1 hPa 0,0 l/m 0 min 0 min 0 W/m 29,0 km/h (5 Bft) 95,74 %
17.03.2022 07:24 8,8 C 8,3 C 4,4 C 95 % 1025,0 hPa 0,0 l/m 0 min 0 min 0 W/m 19,3 km/h (3 Bft) 97,87 %
17.03.2022 07:26 8,7 C 7,8 C 4,4 C 95 % 1025,1 hPa 0,0 l/m 0 min 0 min 5 W/m 35,4 km/h (5 Bft) 97,87 %
17.03.2022 07:28 8,7 C 7,8 C 4,4 C 96 % 1025,1 hPa 0,0 l/m 0 min 0 min 3 W/m 29,0 km/h (5 Bft) 97,87 %
17.03.2022 07:30 8,7 C 7,8 C 4,4 C 96 % 1025,2 hPa 0,0 l/m 0 min 0 min 7 W/m 16,1 km/h (3 Bft) 95,65 %
17.03.2022 07:32 8,6 C 7,8 C 4,4 C 96 % 1025,2 hPa 0,0 l/m 0 min 0 min 7 W/m 16,1 km/h (3 Bft) 97,87 %
17.03.2022 07:34 8,6 C 7,8 C 4,4 C 96 % 1025,2 hPa 0,0 l/m 0 min 0 min 5 W/m 22,5 km/h (4 Bft) 97,87 %
17.03.2022 07:36 8,6 C 7,8 C 4,4 C 96 % 1025,3 hPa 0,0 l/m 0 min 0 min 6 W/m 19,3 km/h (3 Bft) 95,74 %
17.03.2022 07:38 8,6 C 7,8 C 4,4 C 96 % 1025,3 hPa 0,0 l/m 0 min 0 min 7 W/m 22,5 km/h (4 Bft) 95,74 %
17.03.2022 07:40 8,6 C 7,8 C 4,4 C 96 % 1025,4 hPa 0,0 l/m 0 min 0 min 3 W/m 19,3 km/h (3 Bft) 95,74 %
17.03.2022 07:42 8,6 C 7,8 C 4,4 C 96 % 1025,5 hPa 0,0 l/m 0 min 0 min 5 W/m 16,1 km/h (3 Bft) 95,65 %
17.03.2022 07:44 8,5 C 7,8 C 4,4 C 96 % 1025,5 hPa 0,0 l/m 0 min 0 min 6 W/m 16,1 km/h (3 Bft) 97,87 %
17.03.2022 07:46 8,5 C 7,8 C 4,4 C 96 % 1025,6 hPa 0,0 l/m 0 min 0 min 7 W/m 12,9 km/h (3 Bft) 93,62 %
17.03.2022 07:48 8,5 C 7,8 C 4,4 C 96 % 1025,6 hPa 0,0 l/m 0 min 0 min 9 W/m 16,1 km/h (3 Bft) 93,62 %
17.03.2022 07:50 8,5 C 7,8 C 4,4 C 96 % 1025,7 hPa 0,0 l/m 0 min 0 min 10 W/m 16,1 km/h (3 Bft) 95,74 %
17.03.2022 07:52 8,4 C 7,8 C 4,4 C 96 % 1025,8 hPa 0,0 l/m 0 min 0 min 12 W/m 16,1 km/h (3 Bft) 37,50 %
17.03.2022 07:54 8,4 C 7,8 C 4,4 C 96 % 1025,9 hPa 0,0 l/m 0 min 0 min 14 W/m 22,5 km/h (4 Bft) 97,87 %
17.03.2022 07:56 8,4 C 7,8 C 4,4 C 96 % 1025,9 hPa 0,0 l/m 0 min 0 min 15 W/m 19,3 km/h (3 Bft) 95,65 %
17.03.2022 07:58 8,4 C 7,8 C 4,4 C 96 % 1025,9 hPa 0,0 l/m 0 min 0 min 17 W/m 12,9 km/h (3 Bft) 97,87 %
17.03.2022 08:00 8,4 C 7,8 C 4,4 C 96 % 1026,1 hPa 0,0 l/m 0 min 0 min 16 W/m 12,9 km/h (3 Bft) 97,87 %
17.03.2022 08:02 8,3 C 7,8 C 4,4 C 95 % 1026,1 hPa 0,0 l/m 0 min 0 min 16 W/m 19,3 km/h (3 Bft) 93,62 %
17.03.2022 08:04 8,3 C 7,8 C 4,4 C 95 % 1026,2 hPa 0,0 l/m 0 min 0 min 16 W/m 16,1 km/h (3 Bft) 97,87 %
17.03.2022 08:06 8,3 C 7,8 C 4,4 C 95 % 1026,2 hPa 0,0 l/m 0 min 0 min 18 W/m 16,1 km/h (3 Bft) 97,87 %
17.03.2022 08:08 8,3 C 7,8 C 4,4 C 95 % 1026,3 hPa 0,0 l/m 0 min 0 min 20 W/m 16,1 km/h (3 Bft) 100,00 %
17.03.2022 08:10 8,3 C 7,8 C 4,4 C 95 % 1026,4 hPa 0,0 l/m 0 min 0 min 25 W/m 16,1 km/h (3 Bft) 100,00 %
17.03.2022 08:12 8,3 C 7,8 C 4,4 C 95 % 1026,3 hPa 0,0 l/m 0 min 0 min 26 W/m 12,9 km/h (3 Bft) 100,00 %
17.03.2022 08:14 8,2 C 7,8 C 4,4 C 95 % 1026,3 hPa 0,0 l/m 0 min 0 min 24 W/m 19,3 km/h (3 Bft) 100,00 %
17.03.2022 08:16 8,2 C 7,8 C 4,4 C 95 % 1026,4 hPa 0,0 l/m 0 min 0 min 19 W/m 16,1 km/h (3 Bft) 100,00 %
17.03.2022 08:18 8,2 C 7,8 C 3,9 C 95 % 1026,5 hPa 0,0 l/m 0 min 0 min 17 W/m 16,1 km/h (3 Bft) 100,00 %
17.03.2022 08:20 8,1 C 7,8 C 3,9 C 95 % 1026,6 hPa 0,0 l/m 0 min 0 min 18 W/m 32,2 km/h (5 Bft) 100,00 %
17.03.2022 08:22 8,1 C 7,8 C 3,9 C 95 % 1026,6 hPa 0,0 l/m 0 min 0 min 19 W/m 19,3 km/h (3 Bft) 100,00 %
17.03.2022 08:24 8,1 C 7,8 C 3,9 C 94 % 1026,7 hPa 0,0 l/m 0 min 0 min 23 W/m 25,7 km/h (4 Bft) 97,87 %
17.03.2022 08:26 8,0 C 7,8 C 3,9 C 94 % 1026,8 hPa 0,0 l/m 0 min 0 min 25 W/m 22,5 km/h (4 Bft) 100,00 %
17.03.2022 08:28 7,9 C 7,8 C 3,9 C 94 % 1026,8 hPa 0,0 l/m 0 min 0 min 25 W/m 22,5 km/h (4 Bft) 100,00 %
17.03.2022 08:30 7,9 C 7,8 C 3,9 C 94 % 1026,9 hPa 0,0 l/m 0 min 0 min 26 W/m 22,5 km/h (4 Bft) 100,00 %
17.03.2022 08:32 7,9 C 7,8 C 3,9 C 93 % 1026,9 hPa 0,0 l/m 0 min 0 min 30 W/m 16,1 km/h (3 Bft) 100,00 %
17.03.2022 08:34 7,9 C 7,2 C 3,9 C 93 % 1027,0 hPa 0,0 l/m 0 min 0 min 37 W/m 16,1 km/h (3 Bft) 100,00 %
17.03.2022 08:36 7,9 C 7,8 C 3,9 C 93 % 1027,1 hPa 0,0 l/m 0 min 0 min 47 W/m 19,3 km/h (3 Bft) 100,00 %
17.03.2022 08:38 7,9 C 7,8 C 3,9 C 93 % 1027,1 hPa 0,0 l/m 0 min 0 min 50 W/m 16,1 km/h (3 Bft) 100,00 %
17.03.2022 08:40 7,9 C 7,8 C 3,9 C 93 % 1027,1 hPa 0,0 l/m 0 min 0 min 53 W/m 19,3 km/h (3 Bft) 100,00 %
17.03.2022 08:42 7,9 C 7,8 C 3,9 C 93 % 1027,2 hPa 0,0 l/m 0 min 0 min 45 W/m 16,1 km/h (3 Bft) 100,00 %
17.03.2022 08:44 7,9 C 7,8 C 3,9 C 92 % 1027,2 hPa 0,0 l/m 0 min 0 min 28 W/m 22,5 km/h (4 Bft) 100,00 %
17.03.2022 08:46 7,9 C 7,8 C 3,9 C 92 % 1027,3 hPa 0,0 l/m 0 min 0 min 21 W/m 19,3 km/h (3 Bft) 100,00 %
17.03.2022 08:48 7,9 C 7,2 C 3,9 C 92 % 1027,4 hPa 0,0 l/m 0 min 0 min 20 W/m 12,9 km/h (3 Bft) 100,00 %
17.03.2022 08:50 7,9 C 7,2 C 3,9 C 92 % 1027,4 hPa 0,0 l/m 0 min 0 min 19 W/m 16,1 km/h (3 Bft) 100,00 %
17.03.2022 08:52 7,9 C 7,2 C 3,9 C 92 % 1027,4 hPa 0,0 l/m 0 min 0 min 19 W/m 16,1 km/h (3 Bft) 100,00 %
17.03.2022 08:54 7,9 C 7,2 C 3,9 C 91 % 1027,5 hPa 0,0 l/m 0 min 0 min 20 W/m 16,1 km/h (3 Bft) 100,00 %
17.03.2022 08:56 7,9 C 7,2 C 3,3 C 91 % 1027,5 hPa 0,0 l/m 0 min 0 min 22 W/m 22,5 km/h (4 Bft) 100,00 %
17.03.2022 08:58 7,9 C 7,2 C 3,3 C 91 % 1027,6 hPa 0,0 l/m 0 min 0 min 29 W/m 12,9 km/h (3 Bft) 100,00 %
17.03.2022 09:00 7,8 C 7,2 C 3,3 C 91 % 1027,6 hPa 0,0 l/m 0 min 0 min 31 W/m 19,3 km/h (3 Bft) 100,00 %
17.03.2022 09:02 7,8 C 7,2 C 3,3 C 91 % 1027,7 hPa 0,0 l/m 0 min 0 min 33 W/m 22,5 km/h (4 Bft) 100,00 %
17.03.2022 09:04 7,8 C 7,2 C 3,3 C 91 % 1027,6 hPa 0,0 l/m 0 min 0 min 45 W/m 25,7 km/h (4 Bft) 97,87 %
17.03.2022 09:06 7,8 C 7,2 C 3,3 C 91 % 1027,7 hPa 0,0 l/m 0 min 0 min 62 W/m 22,5 km/h (4 Bft) 100,00 %
17.03.2022 09:08 7,8 C 7,2 C 3,3 C 90 % 1027,8 hPa 0,0 l/m 0 min 0 min 69 W/m 19,3 km/h (3 Bft) 100,00 %
17.03.2022 09:10 7,8 C 7,8 C 3,3 C 90 % 1027,8 hPa 0,0 l/m 0 min 0 min 79 W/m 25,7 km/h (4 Bft) 100,00 %
17.03.2022 09:12 7,8 C 7,8 C 3,3 C 90 % 1027,8 hPa 0,0 l/m 0 min 0 min 82 W/m 19,3 km/h (3 Bft) 100,00 %
17.03.2022 09:14 7,8 C 7,8 C 3,3 C 90 % 1027,8 hPa 0,0 l/m 0 min 0 min 82 W/m 16,1 km/h (3 Bft) 100,00 %
17.03.2022 09:16 7,8 C 7,8 C 3,3 C 89 % 1027,8 hPa 0,0 l/m 0 min 0 min 74 W/m 9,7 km/h (2 Bft) 100,00 %
17.03.2022 09:18 7,8 C 7,8 C 3,3 C 89 % 1027,9 hPa 0,0 l/m 0 min 0 min 70 W/m 22,5 km/h (4 Bft) 100,00 %
17.03.2022 09:20 7,9 C 7,8 C 3,3 C 89 % 1027,9 hPa 0,0 l/m 0 min 0 min 68 W/m 9,7 km/h (2 Bft) 100,00 %
17.03.2022 09:22 7,9 C 7,8 C 3,3 C 89 % 1027,9 hPa 0,0 l/m 0 min 0 min 66 W/m 16,1 km/h (3 Bft) 100,00 %
17.03.2022 09:24 7,9 C 7,8 C 3,3 C 89 % 1027,9 hPa 0,0 l/m 0 min 0 min 78 W/m 12,9 km/h (3 Bft) 93,62 %
17.03.2022 09:26 7,9 C 7,8 C 3,3 C 88 % 1028,0 hPa 0,0 l/m 0 min 0 min 94 W/m 19,3 km/h (3 Bft) 97,87 %
17.03.2022 09:28 7,9 C 7,8 C 3,3 C 88 % 1028,0 hPa 0,0 l/m 0 min 0 min 103 W/m 19,3 km/h (3 Bft) 95,74 %
17.03.2022 09:30 7,9 C 7,8 C 3,3 C 88 % 1028,1 hPa 0,0 l/m 0 min 0 min 102 W/m 19,3 km/h (3 Bft) 97,83 %
17.03.2022 09:32 8,0 C 7,8 C 3,3 C 88 % 1028,1 hPa 0,0 l/m 0 min 0 min 106 W/m 19,3 km/h (3 Bft) 97,87 %
17.03.2022 09:34 8,0 C 7,8 C 3,9 C 88 % 1028,2 hPa 0,0 l/m 0 min 0 min 110 W/m 16,1 km/h (3 Bft) 95,74 %
17.03.2022 09:36 8,0 C 7,8 C 3,9 C 88 % 1028,2 hPa 0,0 l/m 0 min 0 min 112 W/m 19,3 km/h (3 Bft) 95,74 %
17.03.2022 09:38 8,0 C 7,8 C 3,9 C 88 % 1028,2 hPa 0,0 l/m 0 min 0 min 113 W/m 9,7 km/h (2 Bft) 93,62 %
17.03.2022 09:40 8,1 C 7,8 C 3,9 C 88 % 1028,3 hPa 0,0 l/m 0 min 0 min 115 W/m 16,1 km/h (3 Bft) 95,74 %
17.03.2022 09:42 8,1 C 7,8 C 3,9 C 88 % 1028,3 hPa 0,0 l/m 0 min 0 min 134 W/m 16,1 km/h (3 Bft) 93,62 %
17.03.2022 09:44 8,1 C 8,3 C 3,9 C 88 % 1028,3 hPa 0,0 l/m 0 min 0 min 157 W/m 16,1 km/h (3 Bft) 95,65 %
17.03.2022 09:46 8,1 C 8,3 C 3,9 C 88 % 1028,3 hPa 0,0 l/m 0 min 0 min 178 W/m 19,3 km/h (3 Bft) 93,62 %
17.03.2022 09:48 8,2 C 8,3 C 3,9 C 88 % 1028,4 hPa 0,0 l/m 0 min 0 min 200 W/m 12,9 km/h (3 Bft) 93,62 %
17.03.2022 09:50 8,3 C 8,3 C 4,4 C 88 % 1028,4 hPa 0,0 l/m 2 min 0 min 224 W/m 12,9 km/h (3 Bft) 91,49 %
17.03.2022 09:52 8,3 C 8,3 C 4,4 C 88 % 1028,4 hPa 0,0 l/m 0 min 0 min 174 W/m 16,1 km/h (3 Bft) 93,62 %
17.03.2022 09:54 8,4 C 8,9 C 4,4 C 88 % 1028,5 hPa 0,0 l/m 0 min 0 min 143 W/m 12,9 km/h (3 Bft) 95,74 %
17.03.2022 09:56 8,4 C 8,9 C 4,4 C 87 % 1028,5 hPa 0,0 l/m 0 min 0 min 147 W/m 19,3 km/h (3 Bft) 93,48 %
17.03.2022 09:58 8,6 C 8,9 C 4,4 C 87 % 1028,6 hPa 0,0 l/m 0 min 0 min 138 W/m 19,3 km/h (3 Bft) 97,87 %
17.03.2022 10:00 8,6 C 8,9 C 4,4 C 87 % 1028,6 hPa 0,0 l/m 0 min 0 min 148 W/m 16,1 km/h (3 Bft) 95,74 %
17.03.2022 10:02 8,6 C 8,9 C 4,4 C 86 % 1028,7 hPa 0,0 l/m 0 min 0 min 147 W/m 19,3 km/h (3 Bft) 95,74 %
17.03.2022 10:04 8,7 C 8,9 C 4,4 C 86 % 1028,7 hPa 0,0 l/m 0 min 0 min 133 W/m 12,9 km/h (3 Bft) 95,74 %
17.03.2022 10:06 8,7 C 8,9 C 4,4 C 86 % 1028,8 hPa 0,0 l/m 0 min 0 min 115 W/m 22,5 km/h (4 Bft) 95,65 %
17.03.2022 10:08 8,7 C 8,9 C 4,4 C 86 % 1028,8 hPa 0,0 l/m 0 min 0 min 123 W/m 19,3 km/h (3 Bft) 91,49 %
17.03.2022 10:10 8,7 C 8,9 C 4,4 C 85 % 1028,8 hPa 0,0 l/m 0 min 0 min 125 W/m 19,3 km/h (3 Bft) 93,62 %
17.03.2022 10:12 8,7 C 8,3 C 4,4 C 85 % 1028,9 hPa 0,0 l/m 0 min 0 min 105 W/m 22,5 km/h (4 Bft) 95,74 %
17.03.2022 10:14 8,6 C 8,3 C 4,4 C 85 % 1028,9 hPa 0,0 l/m 0 min 0 min 96 W/m 22,5 km/h (4 Bft) 95,74 %
17.03.2022 10:16 8,6 C 8,3 C 4,4 C 85 % 1029,0 hPa 0,0 l/m 0 min 0 min 83 W/m 19,3 km/h (3 Bft) 95,74 %
17.03.2022 10:18 8,6 C 8,3 C 4,4 C 85 % 1029,0 hPa 0,0 l/m 0 min 0 min 76 W/m 19,3 km/h (3 Bft) 95,65 %
17.03.2022 10:20 8,6 C 8,3 C 4,4 C 85 % 1029,1 hPa 0,0 l/m 0 min 0 min 101 W/m 19,3 km/h (3 Bft) 97,87 %
17.03.2022 10:22 8,6 C 8,3 C 4,4 C 85 % 1029,1 hPa 0,0 l/m 0 min 0 min 128 W/m 12,9 km/h (3 Bft) 97,87 %
17.03.2022 10:24 8,7 C 8,3 C 4,4 C 86 % 1029,1 hPa 0,0 l/m 0 min 0 min 158 W/m 32,2 km/h (5 Bft) 95,74 %
17.03.2022 10:26 8,6 C 8,9 C 4,4 C 85 % 1029,1 hPa 0,0 l/m 0 min 0 min 184 W/m 19,3 km/h (3 Bft) 97,87 %
17.03.2022 10:28 8,7 C 8,9 C 4,4 C 85 % 1029,2 hPa 0,0 l/m 0 min 0 min 182 W/m 19,3 km/h (3 Bft) 97,87 %
17.03.2022 10:30 8,7 C 8,9 C 4,4 C 85 % 1029,2 hPa 0,0 l/m 0 min 0 min 157 W/m 22,5 km/h (4 Bft) 97,83 %
17.03.2022 10:32 8,6 C 8,9 C 4,4 C 85 % 1029,2 hPa 0,0 l/m 0 min 0 min 137 W/m 25,7 km/h (4 Bft) 97,87 %
17.03.2022 10:34 8,6 C 8,3 C 4,4 C 85 % 1029,3 hPa 0,0 l/m 0 min 0 min 111 W/m 19,3 km/h (3 Bft) 97,87 %
17.03.2022 10:36 8,6 C 8,3 C 4,4 C 85 % 1029,4 hPa 0,0 l/m 0 min 0 min 99 W/m 12,9 km/h (3 Bft) 100,00 %
17.03.2022 10:38 8,7 C 8,3 C 4,4 C 85 % 1029,4 hPa 0,0 l/m 0 min 0 min 127 W/m 19,3 km/h (3 Bft) 100,00 %
17.03.2022 10:40 8,7 C 8,3 C 4,4 C 85 % 1029,4 hPa 0,0 l/m 0 min 0 min 142 W/m 29,0 km/h (5 Bft) 97,87 %
17.03.2022 10:42 8,7 C 8,9 C 5,0 C 84 % 1029,4 hPa 0,0 l/m 0 min 0 min 144 W/m 16,1 km/h (3 Bft) 97,83 %
17.03.2022 10:44 8,7 C 8,9 C 5,6 C 84 % 1029,4 hPa 0,0 l/m 0 min 0 min 154 W/m 19,3 km/h (3 Bft) 97,87 %
17.03.2022 10:46 8,7 C 8,9 C 5,6 C 84 % 1029,4 hPa 0,0 l/m 0 min 0 min 160 W/m 19,3 km/h (3 Bft) 100,00 %
17.03.2022 10:48 8,7 C 8,9 C 5,6 C 84 % 1029,4 hPa 0,0 l/m 0 min 0 min 155 W/m 25,7 km/h (4 Bft) 100,00 %
17.03.2022 10:50 8,7 C 8,9 C 5,6 C 83 % 1029,5 hPa 0,0 l/m 0 min 0 min 146 W/m 16,1 km/h (3 Bft) 100,00 %
17.03.2022 10:52 8,7 C 8,9 C 5,6 C 83 % 1029,5 hPa 0,0 l/m 0 min 0 min 125 W/m 16,1 km/h (3 Bft) 100,00 %
17.03.2022 10:54 8,7 C 8,9 C 5,6 C 82 % 1029,5 hPa 0,0 l/m 0 min 0 min 105 W/m 16,1 km/h (3 Bft) 97,83 %
17.03.2022 10:56 8,7 C 8,3 C 5,6 C 82 % 1029,6 hPa 0,0 l/m 0 min 0 min 91 W/m 32,2 km/h (5 Bft) 100,00 %
17.03.2022 10:58 8,7 C 8,3 C 5,0 C 82 % 1029,6 hPa 0,0 l/m 0 min 0 min 86 W/m 16,1 km/h (3 Bft) 100,00 %
17.03.2022 11:00 8,7 C 8,3 C 5,0 C 82 % 1029,7 hPa 0,0 l/m 0 min 0 min 89 W/m 22,5 km/h (4 Bft) 100,00 %
17.03.2022 11:02 8,7 C 8,3 C 5,0 C 83 % 1029,7 hPa 0,0 l/m 0 min 0 min 103 W/m 16,1 km/h (3 Bft) 100,00 %
17.03.2022 11:04 8,7 C 8,3 C 5,0 C 83 % 1029,7 hPa 0,0 l/m 0 min 0 min 119 W/m 16,1 km/h (3 Bft) 97,87 %
17.03.2022 11:06 8,7 C 8,3 C 5,0 C 83 % 1029,7 hPa 0,0 l/m 0 min 0 min 134 W/m 25,7 km/h (4 Bft) 100,00 %
17.03.2022 11:08 8,7 C 8,3 C 5,6 C 83 % 1029,7 hPa 0,0 l/m 0 min 0 min 150 W/m 16,1 km/h (3 Bft) 100,00 %
17.03.2022 11:10 8,7 C 8,9 C 5,6 C 83 % 1029,8 hPa 0,0 l/m 0 min 0 min 184 W/m 19,3 km/h (3 Bft) 97,87 %
17.03.2022 11:12 8,7 C 8,9 C 5,6 C 83 % 1029,9 hPa 0,0 l/m 0 min 0 min 201 W/m 12,9 km/h (3 Bft) 100,00 %
17.03.2022 11:14 8,8 C 8,9 C 5,6 C 83 % 1029,8 hPa 0,0 l/m 0 min 0 min 204 W/m 19,3 km/h (3 Bft) 97,87 %
17.03.2022 11:16 8,8 C 8,9 C 5,6 C 83 % 1029,8 hPa 0,0 l/m 0 min 0 min 184 W/m 22,5 km/h (4 Bft) 97,87 %
17.03.2022 11:18 8,8 C 9,4 C 5,6 C 83 % 1029,9 hPa 0,0 l/m 0 min 0 min 153 W/m 25,7 km/h (4 Bft) 97,83 %
17.03.2022 11:20 8,8 C 9,4 C 5,6 C 83 % 1029,9 hPa 0,0 l/m 0 min 0 min 132 W/m 16,1 km/h (3 Bft) 97,87 %
17.03.2022 11:22 8,8 C 8,9 C 5,6 C 82 % 1029,9 hPa 0,0 l/m 0 min 0 min 126 W/m 22,5 km/h (4 Bft) 97,87 %
17.03.2022 11:24 8,8 C 8,9 C 5,6 C 82 % 1030,0 hPa 0,0 l/m 0 min 0 min 111 W/m 22,5 km/h (4 Bft) 97,87 %
17.03.2022 11:26 8,8 C 8,9 C 5,6 C 82 % 1030,1 hPa 0,0 l/m 0 min 0 min 104 W/m 22,5 km/h (4 Bft) 95,74 %
17.03.2022 11:28 8,8 C 8,9 C 5,6 C 82 % 1030,1 hPa 0,0 l/m 0 min 0 min 97 W/m 12,9 km/h (3 Bft) 97,87 %
17.03.2022 11:30 8,8 C 8,9 C 5,6 C 82 % 1030,1 hPa 0,0 l/m 0 min 0 min 91 W/m 12,9 km/h (3 Bft) 95,65 %
17.03.2022 11:32 8,9 C 8,9 C 5,6 C 82 % 1030,1 hPa 0,0 l/m 0 min 0 min 101 W/m 16,1 km/h (3 Bft) 97,87 %
17.03.2022 11:34 8,9 C 8,9 C 5,6 C 82 % 1030,1 hPa 0,0 l/m 0 min 0 min 141 W/m 12,9 km/h (3 Bft) 95,74 %
17.03.2022 11:36 8,9 C 8,9 C 5,6 C 82 % 1030,2 hPa 0,0 l/m 0 min 0 min 173 W/m 12,9 km/h (3 Bft) 97,87 %
17.03.2022 11:38 8,9 C 9,4 C 5,6 C 82 % 1030,3 hPa 0,0 l/m 0 min 0 min 176 W/m 22,5 km/h (4 Bft) 97,87 %
17.03.2022 11:40 8,9 C 9,4 C 5,6 C 83 % 1030,3 hPa 0,0 l/m 0 min 0 min 157 W/m 12,9 km/h (3 Bft) 97,87 %
17.03.2022 11:42 9,0 C 9,4 C 5,6 C 83 % 1030,4 hPa 0,0 l/m 0 min 0 min 113 W/m 22,5 km/h (4 Bft) 97,83 %
17.03.2022 11:44 9,0 C 8,9 C 5,6 C 83 % 1030,4 hPa 0,0 l/m 0 min 0 min 92 W/m 16,1 km/h (3 Bft) 95,74 %
17.03.2022 11:46 9,0 C 8,9 C 5,6 C 83 % 1030,5 hPa 0,0 l/m 0 min 0 min 95 W/m 16,1 km/h (3 Bft) 97,87 %
17.03.2022 11:48 9,0 C 8,9 C 5,6 C 83 % 1030,5 hPa 0,0 l/m 0 min 0 min 112 W/m 16,1 km/h (3 Bft) 100,00 %
17.03.2022 11:50 9,0 C 8,9 C 5,6 C 83 % 1030,5 hPa 0,0 l/m 0 min 0 min 112 W/m 19,3 km/h (3 Bft) 100,00 %
17.03.2022 11:52 9,0 C 8,9 C 5,6 C 83 % 1030,5 hPa 0,0 l/m 0 min 0 min 107 W/m 22,5 km/h (4 Bft) 100,00 %
17.03.2022 11:54 9,0 C 8,9 C 5,6 C 83 % 1030,6 hPa 0,0 l/m 0 min 0 min 107 W/m 19,3 km/h (3 Bft) 100,00 %
17.03.2022 11:56 8,9 C 8,9 C 5,6 C 82 % 1030,6 hPa 0,0 l/m 0 min 0 min 112 W/m 12,9 km/h (3 Bft) 100,00 %
17.03.2022 11:58 8,9 C 8,9 C 5,6 C 82 % 1030,6 hPa 0,0 l/m 0 min 0 min 134 W/m 25,7 km/h (4 Bft) 100,00 %
17.03.2022 12:00 8,9 C 8,9 C 5,6 C 82 % 1030,6 hPa 0,0 l/m 0 min 0 min 167 W/m 12,9 km/h (3 Bft) 100,00 %
17.03.2022 12:02 8,8 C 8,9 C 5,6 C 82 % 1030,6 hPa 0,0 l/m 0 min 0 min 218 W/m 19,3 km/h (3 Bft) 97,87 %
17.03.2022 12:04 8,9 C 9,4 C 5,6 C 82 % 1030,6 hPa 0,0 l/m 0 min 0 min 278 W/m 16,1 km/h (3 Bft) 100,00 %
17.03.2022 12:08 9,0 C 10,0 C 6,1 C 83 % 1030,7 hPa 0,0 l/m 4 min 0 min 304 W/m 12,9 km/h (3 Bft) 98,94 %
17.03.2022 12:10 9,1 C 10,0 C 6,7 C 83 % 1030,7 hPa 0,0 l/m 2 min 0 min 316 W/m 12,9 km/h (3 Bft) 100,00 %
17.03.2022 12:12 9,2 C 10,0 C 6,7 C 83 % 1030,7 hPa 0,0 l/m 2 min 0 min 342 W/m 19,3 km/h (3 Bft) 100,00 %
17.03.2022 12:14 9,2 C 10,6 C 6,7 C 83 % 1030,7 hPa 0,0 l/m 2 min 0 min 365 W/m 19,3 km/h (3 Bft) 100,00 %
17.03.2022 12:16 9,3 C 10,6 C 6,7 C 82 % 1030,8 hPa 0,0 l/m 2 min 0 min 378 W/m 16,1 km/h (3 Bft) 100,00 %
17.03.2022 12:18 9,4 C 11,1 C 7,2 C 82 % 1030,8 hPa 0,0 l/m 2 min 0 min 380 W/m 12,9 km/h (3 Bft) 97,83 %
17.03.2022 12:20 9,5 C 11,7 C 7,2 C 82 % 1030,8 hPa 0,0 l/m 2 min 0 min 376 W/m 16,1 km/h (3 Bft) 100,00 %
17.03.2022 12:22 9,6 C 12,2 C 7,2 C 82 % 1030,8 hPa 0,0 l/m 2 min 0 min 387 W/m 9,7 km/h (2 Bft) 100,00 %
17.03.2022 12:24 9,7 C 11,7 C 7,2 C 82 % 1030,8 hPa 0,0 l/m 2 min 0 min 411 W/m 12,9 km/h (3 Bft) 100,00 %
17.03.2022 12:26 9,8 C 11,7 C 7,8 C 81 % 1030,9 hPa 0,0 l/m 2 min 0 min 434 W/m 19,3 km/h (3 Bft) 100,00 %
17.03.2022 12:28 9,9 C 12,2 C 7,8 C 81 % 1031,0 hPa 0,0 l/m 2 min 0 min 403 W/m 16,1 km/h (3 Bft) 97,83 %
17.03.2022 12:30 10,0 C 11,7 C 7,8 C 80 % 1030,9 hPa 0,0 l/m 2 min 0 min 344 W/m 19,3 km/h (3 Bft) 100,00 %
17.03.2022 12:32 10,1 C 11,7 C 7,2 C 79 % 1031,0 hPa 0,0 l/m 2 min 0 min 301 W/m 12,9 km/h (3 Bft) 100,00 %
17.03.2022 12:34 10,1 C 11,1 C 7,2 C 79 % 1031,0 hPa 0,0 l/m 0 min 0 min 204 W/m 16,1 km/h (3 Bft) 100,00 %
17.03.2022 12:36 10,1 C 11,1 C 7,2 C 79 % 1031,0 hPa 0,0 l/m 0 min 0 min 126 W/m 12,9 km/h (3 Bft) 97,87 %
17.03.2022 12:38 10,1 C 10,6 C 6,7 C 79 % 1031,0 hPa 0,0 l/m 0 min 0 min 129 W/m 12,9 km/h (3 Bft) 95,74 %
17.03.2022 12:40 10,1 C 10,6 C 6,7 C 79 % 1031,1 hPa 0,0 l/m 0 min 0 min 180 W/m 16,1 km/h (3 Bft) 93,48 %
17.03.2022 12:42 10,0 C 10,0 C 6,7 C 78 % 1031,1 hPa 0,0 l/m 0 min 0 min 227 W/m 12,9 km/h (3 Bft) 95,74 %
17.03.2022 12:44 9,9 C 10,0 C 6,7 C 78 % 1031,1 hPa 0,0 l/m 0 min 0 min 200 W/m 16,1 km/h (3 Bft) 95,74 %
17.03.2022 12:46 9,9 C 10,0 C 6,7 C 78 % 1031,1 hPa 0,0 l/m 0 min 0 min 175 W/m 12,9 km/h (3 Bft) 95,74 %
17.03.2022 12:48 9,8 C 10,0 C 6,7 C 78 % 1031,1 hPa 0,0 l/m 0 min 0 min 172 W/m 12,9 km/h (3 Bft) 93,62 %
17.03.2022 12:50 9,7 C 10,0 C 6,1 C 78 % 1031,2 hPa 0,0 l/m 0 min 0 min 157 W/m 16,1 km/h (3 Bft) 93,62 %
17.03.2022 12:52 9,7 C 10,0 C 6,1 C 78 % 1031,2 hPa 0,0 l/m 0 min 0 min 182 W/m 12,9 km/h (3 Bft) 95,65 %
17.03.2022 12:54 9,6 C 10,0 C 6,1 C 78 % 1031,2 hPa 0,0 l/m 0 min 0 min 231 W/m 19,3 km/h (3 Bft) 93,62 %
17.03.2022 12:56 9,7 C 10,6 C 6,1 C 79 % 1031,2 hPa 0,0 l/m 0 min 0 min 268 W/m 12,9 km/h (3 Bft) 93,62 %
17.03.2022 12:58 9,7 C 10,6 C 6,7 C 79 % 1031,3 hPa 0,0 l/m 0 min 0 min 278 W/m 19,3 km/h (3 Bft) 95,74 %
17.03.2022 13:00 9,7 C 10,6 C 6,7 C 79 % 1031,2 hPa 0,0 l/m 0 min 0 min 265 W/m 19,3 km/h (3 Bft) 95,74 %
17.03.2022 13:02 9,7 C 10,6 C 6,7 C 78 % 1031,3 hPa 0,0 l/m 0 min 0 min 244 W/m 16,1 km/h (3 Bft) 93,62 %
17.03.2022 13:04 9,7 C 10,6 C 6,7 C 78 % 1031,3 hPa 0,0 l/m 0 min 0 min 212 W/m 9,7 km/h (2 Bft) 95,65 %
17.03.2022 13:06 9,7 C 10,6 C 6,7 C 78 % 1031,3 hPa 0,0 l/m 0 min 0 min 183 W/m 16,1 km/h (3 Bft) 93,62 %
17.03.2022 13:08 9,7 C 10,6 C 6,7 C 78 % 1031,3 hPa 0,0 l/m 0 min 0 min 185 W/m 6,4 km/h (2 Bft) 95,74 %
17.03.2022 13:10 9,8 C 10,6 C 6,7 C 78 % 1031,3 hPa 0,0 l/m 0 min 0 min 219 W/m 16,1 km/h (3 Bft) 95,74 %
17.03.2022 13:12 9,8 C 10,6 C 6,7 C 78 % 1031,3 hPa 0,0 l/m 0 min 0 min 222 W/m 16,1 km/h (3 Bft) 95,74 %
17.03.2022 13:14 9,8 C 10,6 C 6,7 C 77 % 1031,4 hPa 0,0 l/m 0 min 0 min 211 W/m 22,5 km/h (4 Bft) 93,62 %
17.03.2022 13:16 9,8 C 10,6 C 6,7 C 77 % 1031,4 hPa 0,0 l/m 0 min 0 min 204 W/m 22,5 km/h (4 Bft) 93,48 %
17.03.2022 13:18 9,8 C 10,6 C 6,7 C 77 % 1031,4 hPa 0,0 l/m 0 min 0 min 192 W/m 12,9 km/h (3 Bft) 93,62 %
17.03.2022 13:20 9,8 C 10,6 C 6,7 C 77 % 1031,5 hPa 0,0 l/m 0 min 0 min 186 W/m 25,7 km/h (4 Bft) 93,62 %
17.03.2022 13:22 9,9 C 10,6 C 6,7 C 76 % 1031,5 hPa 0,0 l/m 0 min 0 min 187 W/m 16,1 km/h (3 Bft) 96,00 %
17.03.2022 13:24 9,9 C 10,6 C 6,7 C 76 % 1031,5 hPa 0,0 l/m 0 min 0 min 206 W/m 19,3 km/h (3 Bft) 97,14 %
17.03.2022 13:26 9,8 C 10,6 C 6,7 C 76 % 1031,4 hPa 0,0 l/m 0 min 0 min 219 W/m 19,3 km/h (3 Bft) 93,62 %
17.03.2022 13:28 9,9 C 10,6 C 6,7 C 76 % 1031,5 hPa 0,0 l/m 0 min 0 min 221 W/m 29,0 km/h (5 Bft) 95,65 %
17.03.2022 13:30 9,9 C 10,6 C 6,7 C 75 % 1031,6 hPa 0,0 l/m 0 min 0 min 217 W/m 22,5 km/h (4 Bft) 95,74 %
17.03.2022 13:32 9,8 C 10,6 C 6,7 C 75 % 1031,6 hPa 0,0 l/m 0 min 0 min 213 W/m 25,7 km/h (4 Bft) 95,74 %
17.03.2022 13:34 9,8 C 10,6 C 6,7 C 75 % 1031,6 hPa 0,0 l/m 0 min 0 min 207 W/m 22,5 km/h (4 Bft) 95,74 %
17.03.2022 13:36 9,8 C 10,6 C 6,7 C 74 % 1031,6 hPa 0,0 l/m 0 min 0 min 209 W/m 16,1 km/h (3 Bft) 96,55 %
17.03.2022 13:38 9,8 C 10,6 C 6,7 C 74 % 1031,6 hPa 0,0 l/m 0 min 0 min 208 W/m 16,1 km/h (3 Bft) 95,74 %
17.03.2022 13:40 9,8 C 10,0 C 6,7 C 74 % 1031,6 hPa 0,0 l/m 0 min 0 min 202 W/m 22,5 km/h (4 Bft) 97,14 %
17.03.2022 13:42 9,8 C 10,0 C 6,7 C 74 % 1031,6 hPa 0,0 l/m 0 min 0 min 186 W/m 16,1 km/h (3 Bft) 97,87 %
17.03.2022 13:44 9,8 C 10,0 C 6,1 C 74 % 1031,6 hPa 0,0 l/m 0 min 0 min 183 W/m 12,9 km/h (3 Bft) 97,87 %
17.03.2022 13:46 9,8 C 10,0 C 6,1 C 75 % 1031,6 hPa 0,0 l/m 0 min 0 min 196 W/m 12,9 km/h (3 Bft) 98,15 %
17.03.2022 13:48 9,8 C 10,0 C 6,7 C 75 % 1031,7 hPa 0,0 l/m 0 min 0 min 212 W/m 12,9 km/h (3 Bft) 97,87 %
17.03.2022 13:50 9,8 C 10,0 C 6,7 C 75 % 1031,6 hPa 0,0 l/m 0 min 0 min 220 W/m 25,7 km/h (4 Bft) 95,74 %
17.03.2022 13:52 9,8 C 10,0 C 6,7 C 75 % 1031,6 hPa 0,0 l/m 0 min 0 min 220 W/m 16,1 km/h (3 Bft) 97,83 %
17.03.2022 13:54 9,8 C 10,0 C 6,7 C 74 % 1031,7 hPa 0,0 l/m 0 min 0 min 216 W/m 16,1 km/h (3 Bft) 100,00 %
17.03.2022 13:56 9,8 C 10,0 C 6,7 C 74 % 1031,7 hPa 0,0 l/m 0 min 0 min 198 W/m 25,7 km/h (4 Bft) 100,00 %
17.03.2022 13:58 9,8 C 10,0 C 6,1 C 74 % 1031,7 hPa 0,0 l/m 0 min 0 min 178 W/m 12,9 km/h (3 Bft) 97,87 %
17.03.2022 14:00 9,8 C 10,0 C 6,1 C 74 % 1031,7 hPa 0,0 l/m 0 min 0 min 178 W/m 25,7 km/h (4 Bft) 100,00 %
17.03.2022 14:02 9,8 C 10,0 C 6,1 C 74 % 1031,8 hPa 0,0 l/m 0 min 0 min 177 W/m 16,1 km/h (3 Bft) 100,00 %
17.03.2022 14:04 9,8 C 10,0 C 6,1 C 75 % 1031,8 hPa 0,0 l/m 0 min 0 min 184 W/m 19,3 km/h (3 Bft) 100,00 %
17.03.2022 14:06 9,8 C 10,0 C 6,1 C 75 % 1031,8 hPa 0,0 l/m 0 min 0 min 190 W/m 16,1 km/h (3 Bft) 97,87 %
17.03.2022 14:08 9,8 C 10,0 C 6,1 C 75 % 1031,8 hPa 0,0 l/m 0 min 0 min 191 W/m 29,0 km/h (5 Bft) 100,00 %
17.03.2022 14:10 9,8 C 10,0 C 6,1 C 75 % 1031,7 hPa 0,0 l/m 0 min 0 min 198 W/m 29,0 km/h (5 Bft) 100,00 %
17.03.2022 14:12 9,8 C 10,0 C 6,1 C 75 % 1031,8 hPa 0,0 l/m 0 min 0 min 202 W/m 22,5 km/h (4 Bft) 100,00 %
17.03.2022 14:14 9,7 C 10,0 C 6,1 C 75 % 1031,8 hPa 0,0 l/m 0 min 0 min 197 W/m 19,3 km/h (3 Bft) 100,00 %
17.03.2022 14:16 9,7 C 10,0 C 6,1 C 75 % 1031,8 hPa 0,0 l/m 0 min 0 min 190 W/m 22,5 km/h (4 Bft) 100,00 %
17.03.2022 14:18 9,8 C 10,0 C 6,1 C 75 % 1031,8 hPa 0,0 l/m 0 min 0 min 192 W/m 16,1 km/h (3 Bft) 100,00 %
17.03.2022 14:20 9,8 C 10,0 C 6,1 C 75 % 1031,9 hPa 0,0 l/m 0 min 0 min 196 W/m 22,5 km/h (4 Bft) 100,00 %
17.03.2022 14:22 9,8 C 10,0 C 6,1 C 75 % 1031,9 hPa 0,0 l/m 0 min 0 min 201 W/m 32,2 km/h (5 Bft) 100,00 %
17.03.2022 14:24 9,7 C 10,0 C 6,1 C 73 % 1032,1 hPa 0,0 l/m 0 min 0 min 206 W/m 29,0 km/h (5 Bft) 97,87 %
17.03.2022 14:26 9,7 C 10,0 C 6,1 C 72 % 1031,9 hPa 0,0 l/m 0 min 0 min 215 W/m 25,7 km/h (4 Bft) 97,83 %
17.03.2022 14:28 9,7 C 10,0 C 6,1 C 72 % 1031,9 hPa 0,0 l/m 0 min 0 min 218 W/m 16,1 km/h (3 Bft) 100,00 %
17.03.2022 14:30 9,7 C 10,0 C 6,1 C 72 % 1031,9 hPa 0,0 l/m 0 min 0 min 218 W/m 22,5 km/h (4 Bft) 100,00 %
17.03.2022 14:32 9,7 C 10,0 C 6,1 C 73 % 1032,0 hPa 0,0 l/m 0 min 0 min 218 W/m 22,5 km/h (4 Bft) 100,00 %
17.03.2022 14:34 9,8 C 10,0 C 6,1 C 72 % 1031,9 hPa 0,0 l/m 0 min 0 min 217 W/m 32,2 km/h (5 Bft) 100,00 %
17.03.2022 14:36 9,8 C 10,0 C 6,1 C 72 % 1032,0 hPa 0,0 l/m 0 min 0 min 214 W/m 29,0 km/h (5 Bft) 100,00 %
17.03.2022 14:38 9,8 C 10,0 C 6,1 C 72 % 1031,9 hPa 0,0 l/m 0 min 0 min 211 W/m 25,7 km/h (4 Bft) 100,00 %
17.03.2022 14:40 9,8 C 10,0 C 6,1 C 72 % 1031,9 hPa 0,0 l/m 0 min 0 min 209 W/m 19,3 km/h (3 Bft) 100,00 %
17.03.2022 14:42 9,8 C 10,0 C 6,1 C 72 % 1031,9 hPa 0,0 l/m 0 min 0 min 209 W/m 29,0 km/h (5 Bft) 100,00 %
17.03.2022 14:44 9,8 C 10,0 C 6,1 C 72 % 1032,0 hPa 0,0 l/m 0 min 0 min 207 W/m 25,7 km/h (4 Bft) 100,00 %
17.03.2022 14:46 9,8 C 10,0 C 6,1 C 72 % 1032,0 hPa 0,0 l/m 0 min 0 min 208 W/m 22,5 km/h (4 Bft) 100,00 %
17.03.2022 14:48 9,8 C 10,0 C 6,1 C 72 % 1032,1 hPa 0,0 l/m 0 min 0 min 209 W/m 22,5 km/h (4 Bft) 100,00 %
17.03.2022 14:50 9,8 C 10,0 C 6,1 C 72 % 1032,0 hPa 0,0 l/m 0 min 0 min 209 W/m 25,7 km/h (4 Bft) 97,83 %
17.03.2022 14:52 9,8 C 10,0 C 6,1 C 72 % 1032,1 hPa 0,0 l/m 0 min 0 min 208 W/m 19,3 km/h (3 Bft) 100,00 %
17.03.2022 14:54 9,7 C 10,0 C 6,1 C 72 % 1032,1 hPa 0,0 l/m 0 min 0 min 207 W/m 19,3 km/h (3 Bft) 100,00 %
17.03.2022 14:56 9,8 C 10,0 C 6,1 C 72 % 1032,1 hPa 0,0 l/m 0 min 0 min 205 W/m 19,3 km/h (3 Bft) 100,00 %
17.03.2022 14:58 9,7 C 10,0 C 6,1 C 72 % 1032,1 hPa 0,0 l/m 0 min 0 min 202 W/m 12,9 km/h (3 Bft) 100,00 %
17.03.2022 15:00 9,8 C 10,0 C 6,1 C 72 % 1032,1 hPa 0,0 l/m 0 min 0 min 200 W/m 19,3 km/h (3 Bft) 100,00 %
17.03.2022 15:02 9,8 C 10,0 C 6,1 C 72 % 1032,2 hPa 0,0 l/m 0 min 0 min 199 W/m 16,1 km/h (3 Bft) 100,00 %
17.03.2022 15:04 9,8 C 10,0 C 6,1 C 72 % 1032,2 hPa 0,0 l/m 0 min 0 min 198 W/m 16,1 km/h (3 Bft) 100,00 %
17.03.2022 15:06 9,8 C 10,0 C 6,1 C 72 % 1032,2 hPa 0,0 l/m 0 min 0 min 196 W/m 16,1 km/h (3 Bft) 100,00 %
17.03.2022 15:08 9,8 C 10,0 C 6,1 C 72 % 1032,2 hPa 0,0 l/m 0 min 0 min 194 W/m 9,7 km/h (2 Bft) 100,00 %
17.03.2022 15:10 9,8 C 10,0 C 6,7 C 72 % 1032,2 hPa 0,0 l/m 0 min 0 min 192 W/m 19,3 km/h (3 Bft) 100,00 %
17.03.2022 15:12 9,8 C 10,6 C 6,7 C 72 % 1032,2 hPa 0,0 l/m 0 min 0 min 192 W/m 9,7 km/h (2 Bft) 100,00 %
17.03.2022 15:14 9,9 C 10,6 C 6,7 C 72 % 1032,3 hPa 0,0 l/m 0 min 0 min 191 W/m 25,7 km/h (4 Bft) 100,00 %
17.03.2022 15:16 9,9 C 10,0 C 6,7 C 72 % 1032,3 hPa 0,0 l/m 0 min 0 min 188 W/m 19,3 km/h (3 Bft) 97,87 %
17.03.2022 15:18 9,9 C 10,0 C 6,1 C 71 % 1032,4 hPa 0,0 l/m 0 min 0 min 187 W/m 19,3 km/h (3 Bft) 97,87 %
17.03.2022 15:20 9,9 C 10,0 C 6,1 C 71 % 1032,4 hPa 0,0 l/m 0 min 0 min 186 W/m 25,7 km/h (4 Bft) 95,74 %
17.03.2022 15:22 9,9 C 10,0 C 6,1 C 71 % 1032,4 hPa 0,0 l/m 0 min 0 min 184 W/m 19,3 km/h (3 Bft) 95,74 %
17.03.2022 15:24 9,9 C 10,0 C 6,1 C 71 % 1032,5 hPa 0,0 l/m 0 min 0 min 178 W/m 12,9 km/h (3 Bft) 95,65 %
17.03.2022 15:26 9,9 C 10,0 C 6,1 C 71 % 1032,6 hPa 0,0 l/m 0 min 0 min 176 W/m 12,9 km/h (3 Bft) 93,62 %
17.03.2022 15:28 9,9 C 10,0 C 6,1 C 71 % 1032,6 hPa 0,0 l/m 0 min 0 min 178 W/m 16,1 km/h (3 Bft) 95,74 %
17.03.2022 15:30 9,9 C 10,0 C 6,1 C 71 % 1032,6 hPa 0,0 l/m 0 min 0 min 177 W/m 12,9 km/h (3 Bft) 95,74 %
17.03.2022 15:32 9,9 C 10,0 C 6,1 C 71 % 1032,6 hPa 0,0 l/m 0 min 0 min 175 W/m 12,9 km/h (3 Bft) 93,62 %
17.03.2022 15:34 9,9 C 10,0 C 6,1 C 71 % 1032,6 hPa 0,0 l/m 0 min 0 min 172 W/m 12,9 km/h (3 Bft) 95,74 %
17.03.2022 15:36 9,9 C 10,0 C 6,1 C 71 % 1032,6 hPa 0,0 l/m 0 min 0 min 169 W/m 12,9 km/h (3 Bft) 95,74 %
17.03.2022 15:38 10,0 C 10,6 C 6,1 C 71 % 1032,6 hPa 0,0 l/m 0 min 0 min 169 W/m 6,4 km/h (2 Bft) 95,65 %
17.03.2022 15:40 10,0 C 10,6 C 6,7 C 71 % 1032,7 hPa 0,0 l/m 0 min 0 min 168 W/m 9,7 km/h (2 Bft) 95,74 %
17.03.2022 15:42 10,0 C 10,0 C 6,1 C 70 % 1032,6 hPa 0,0 l/m 0 min 0 min 162 W/m 19,3 km/h (3 Bft) 93,62 %
17.03.2022 15:44 10,0 C 10,0 C 6,1 C 71 % 1032,7 hPa 0,0 l/m 0 min 0 min 158 W/m 19,3 km/h (3 Bft) 95,74 %
17.03.2022 15:46 10,0 C 10,0 C 6,1 C 70 % 1032,7 hPa 0,0 l/m 0 min 0 min 156 W/m 12,9 km/h (3 Bft) 95,74 %
17.03.2022 15:48 10,0 C 10,0 C 6,1 C 71 % 1032,7 hPa 0,0 l/m 0 min 0 min 155 W/m 22,5 km/h (4 Bft) 95,65 %
17.03.2022 15:50 10,0 C 10,0 C 6,1 C 71 % 1032,7 hPa 0,0 l/m 0 min 0 min 153 W/m 9,7 km/h (2 Bft) 93,62 %
17.03.2022 15:52 10,0 C 10,0 C 6,1 C 71 % 1032,8 hPa 0,0 l/m 0 min 0 min 151 W/m 12,9 km/h (3 Bft) 93,62 %
17.03.2022 15:54 10,1 C 10,0 C 6,1 C 71 % 1032,7 hPa 0,0 l/m 0 min 0 min 149 W/m 9,7 km/h (2 Bft) 97,87 %
17.03.2022 15:56 10,1 C 10,0 C 6,1 C 71 % 1032,7 hPa 0,0 l/m 0 min 0 min 148 W/m 6,4 km/h (2 Bft) 97,87 %
17.03.2022 15:58 10,1 C 10,6 C 6,1 C 71 % 1032,7 hPa 0,0 l/m 0 min 0 min 146 W/m 12,9 km/h (3 Bft) 97,87 %
17.03.2022 16:00 10,1 C 10,0 C 6,1 C 71 % 1032,7 hPa 0,0 l/m 0 min 0 min 143 W/m 9,7 km/h (2 Bft) 97,83 %
17.03.2022 16:02 10,1 C 10,0 C 6,1 C 71 % 1032,7 hPa 0,0 l/m 0 min 0 min 141 W/m 9,7 km/h (2 Bft) 95,74 %
17.03.2022 16:04 10,1 C 10,0 C 6,1 C 71 % 1032,8 hPa 0,0 l/m 0 min 0 min 140 W/m 6,4 km/h (2 Bft) 95,74 %
17.03.2022 16:06 10,1 C 10,0 C 6,1 C 71 % 1032,8 hPa 0,0 l/m 0 min 0 min 136 W/m 9,7 km/h (2 Bft) 95,74 %
17.03.2022 16:08 10,1 C 10,0 C 6,1 C 71 % 1032,7 hPa 0,0 l/m 0 min 0 min 134 W/m 9,7 km/h (2 Bft) 95,74 %
17.03.2022 16:10 10,1 C 10,0 C 6,1 C 71 % 1032,8 hPa 0,0 l/m 0 min 0 min 133 W/m 9,7 km/h (2 Bft) 97,87 %
17.03.2022 16:12 10,1 C 10,0 C 6,1 C 71 % 1032,8 hPa 0,0 l/m 0 min 0 min 130 W/m 9,7 km/h (2 Bft) 95,65 %
17.03.2022 16:14 10,1 C 10,0 C 6,1 C 71 % 1032,8 hPa 0,0 l/m 0 min 0 min 128 W/m 12,9 km/h (3 Bft) 97,87 %
17.03.2022 16:16 10,1 C 10,0 C 6,1 C 70 % 1032,9 hPa 0,0 l/m 0 min 0 min 127 W/m 6,4 km/h (2 Bft) 97,87 %
17.03.2022 16:18 10,1 C 10,0 C 6,1 C 71 % 1032,9 hPa 0,0 l/m 0 min 0 min 125 W/m 9,7 km/h (2 Bft) 97,87 %
17.03.2022 16:20 10,1 C 10,0 C 6,1 C 71 % 1032,9 hPa 0,0 l/m 0 min 0 min 122 W/m 6,4 km/h (2 Bft) 97,87 %
17.03.2022 16:22 10,1 C 10,0 C 6,1 C 71 % 1032,9 hPa 0,0 l/m 0 min 0 min 120 W/m 6,4 km/h (2 Bft) 97,87 %
17.03.2022 16:24 10,1 C 10,0 C 6,1 C 71 % 1032,9 hPa 0,0 l/m 0 min 0 min 118 W/m 6,4 km/h (2 Bft) 97,83 %
17.03.2022 16:26 10,1 C 10,0 C 6,1 C 71 % 1032,9 hPa 0,0 l/m 0 min 0 min 115 W/m 12,9 km/h (3 Bft) 97,87 %
17.03.2022 16:28 10,1 C 10,0 C 6,1 C 71 % 1033,0 hPa 0,0 l/m 0 min 0 min 114 W/m 6,4 km/h (2 Bft) 97,87 %
17.03.2022 16:30 10,1 C 10,0 C 6,1 C 71 % 1033,0 hPa 0,0 l/m 0 min 0 min 113 W/m 12,9 km/h (3 Bft) 97,87 %
17.03.2022 16:32 10,1 C 10,0 C 6,1 C 71 % 1033,1 hPa 0,0 l/m 0 min 0 min 111 W/m 9,7 km/h (2 Bft) 97,87 %
17.03.2022 16:34 10,1 C 10,0 C 6,1 C 71 % 1033,1 hPa 0,0 l/m 0 min 0 min 110 W/m 9,7 km/h (2 Bft) 97,87 %
17.03.2022 16:36 10,1 C 10,0 C 6,1 C 71 % 1033,1 hPa 0,0 l/m 0 min 0 min 109 W/m 6,4 km/h (2 Bft) 95,65 %
17.03.2022 16:38 10,1 C 10,0 C 6,1 C 71 % 1033,1 hPa 0,0 l/m 0 min 0 min 106 W/m 6,4 km/h (2 Bft) 97,87 %
17.03.2022 16:40 10,1 C 10,0 C 6,1 C 71 % 1033,1 hPa 0,0 l/m 0 min 0 min 104 W/m 9,7 km/h (2 Bft) 95,74 %
17.03.2022 16:42 10,1 C 10,0 C 6,1 C 71 % 1033,2 hPa 0,0 l/m 0 min 0 min 102 W/m 9,7 km/h (2 Bft) 95,74 %
17.03.2022 16:44 10,1 C 10,0 C 6,1 C 71 % 1033,2 hPa 0,0 l/m 0 min 0 min 99 W/m 9,7 km/h (2 Bft) 97,87 %
17.03.2022 16:46 10,1 C 9,4 C 6,1 C 71 % 1033,2 hPa 0,0 l/m 0 min 0 min 98 W/m 9,7 km/h (2 Bft) 93,62 %
17.03.2022 16:48 10,1 C 9,4 C 6,1 C 71 % 1033,3 hPa 0,0 l/m 0 min 0 min 95 W/m 6,4 km/h (2 Bft) 97,83 %
17.03.2022 16:50 10,1 C 9,4 C 6,1 C 71 % 1033,3 hPa 0,0 l/m 0 min 0 min 92 W/m 6,4 km/h (2 Bft) 97,87 %
17.03.2022 16:52 10,0 C 9,4 C 6,1 C 71 % 1033,3 hPa 0,0 l/m 0 min 0 min 90 W/m 3,2 km/h (1 Bft) 97,87 %
17.03.2022 16:54 10,0 C 9,4 C 6,1 C 71 % 1033,3 hPa 0,0 l/m 0 min 0 min 89 W/m 6,4 km/h (2 Bft) 97,87 %
17.03.2022 16:56 10,0 C 9,4 C 6,1 C 71 % 1033,3 hPa 0,0 l/m 0 min 0 min 86 W/m 3,2 km/h (1 Bft) 100,00 %
17.03.2022 16:58 10,0 C 9,4 C 6,1 C 71 % 1033,3 hPa 0,0 l/m 0 min 0 min 84 W/m 3,2 km/h (1 Bft) 97,87 %
17.03.2022 17:00 10,0 C 9,4 C 5,6 C 71 % 1033,2 hPa 0,0 l/m 0 min 0 min 82 W/m 3,2 km/h (1 Bft) 100,00 %
17.03.2022 17:02 10,0 C 9,4 C 5,6 C 71 % 1033,3 hPa 0,0 l/m 0 min 0 min 79 W/m 3,2 km/h (1 Bft) 100,00 %
17.03.2022 17:04 10,0 C 9,4 C 5,6 C 71 % 1033,3 hPa 0,0 l/m 0 min 0 min 77 W/m 3,2 km/h (1 Bft) 100,00 %
17.03.2022 17:06 10,0 C 9,4 C 5,6 C 71 % 1033,3 hPa 0,0 l/m 0 min 0 min 76 W/m 6,4 km/h (2 Bft) 100,00 %
17.03.2022 17:08 10,0 C 9,4 C 5,6 C 71 % 1033,3 hPa 0,0 l/m 0 min 0 min 73 W/m 6,4 km/h (2 Bft) 100,00 %
17.03.2022 17:10 9,9 C 9,4 C 5,6 C 71 % 1033,4 hPa 0,0 l/m 0 min 0 min 71 W/m 3,2 km/h (1 Bft) 100,00 %
17.03.2022 17:12 9,9 C 9,4 C 5,6 C 71 % 1033,4 hPa 0,0 l/m 0 min 0 min 69 W/m 0,0 km/h (0 Bft) 100,00 %
17.03.2022 17:14 9,9 C 9,4 C 5,6 C 71 % 1033,4 hPa 0,0 l/m 0 min 0 min 67 W/m 0,0 km/h (0 Bft) 97,87 %
17.03.2022 17:16 9,9 C 9,4 C 5,6 C 72 % 1033,4 hPa 0,0 l/m 0 min 0 min 65 W/m 3,2 km/h (1 Bft) 100,00 %
17.03.2022 17:18 9,9 C 9,4 C 5,6 C 72 % 1033,5 hPa 0,0 l/m 0 min 0 min 63 W/m 0,0 km/h (0 Bft) 100,00 %
17.03.2022 17:20 9,9 C 9,4 C 5,6 C 72 % 1033,5 hPa 0,0 l/m 0 min 0 min 62 W/m 0,0 km/h (0 Bft) 97,87 %
17.03.2022 17:22 9,9 C 9,4 C 5,6 C 72 % 1033,5 hPa 0,0 l/m 0 min 0 min 60 W/m 0,0 km/h (0 Bft) 97,83 %
17.03.2022 17:24 9,9 C 8,9 C 5,6 C 72 % 1033,5 hPa 0,0 l/m 0 min 0 min 58 W/m 0,0 km/h (0 Bft) 97,87 %
17.03.2022 17:26 9,8 C 8,9 C 5,6 C 72 % 1033,6 hPa 0,0 l/m 0 min 0 min 57 W/m 0,0 km/h (0 Bft) 95,74 %
17.03.2022 17:28 9,8 C 8,9 C 5,6 C 72 % 1033,5 hPa 0,0 l/m 0 min 0 min 54 W/m 0,0 km/h (0 Bft) 93,62 %
17.03.2022 17:30 9,8 C 8,9 C 5,6 C 73 % 1033,5 hPa 0,0 l/m 0 min 0 min 52 W/m 0,0 km/h (0 Bft) 97,87 %
17.03.2022 17:32 9,8 C 8,9 C 5,6 C 73 % 1033,5 hPa 0,0 l/m 0 min 0 min 50 W/m 0,0 km/h (0 Bft) 97,87 %
17.03.2022 17:34 9,8 C 8,9 C 5,6 C 73 % 1033,6 hPa 0,0 l/m 0 min 0 min 48 W/m 0,0 km/h (0 Bft) 97,83 %
17.03.2022 17:36 9,8 C 8,9 C 5,6 C 73 % 1033,5 hPa 0,0 l/m 0 min 0 min 47 W/m 0,0 km/h (0 Bft) 97,87 %
17.03.2022 17:38 9,8 C 8,9 C 5,0 C 73 % 1033,6 hPa 0,0 l/m 0 min 0 min 45 W/m 0,0 km/h (0 Bft) 97,87 %
17.03.2022 17:40 9,8 C 8,9 C 5,0 C 73 % 1033,6 hPa 0,0 l/m 0 min 0 min 43 W/m 0,0 km/h (0 Bft) 97,87 %
17.03.2022 17:42 9,8 C 8,9 C 5,0 C 73 % 1033,7 hPa 0,0 l/m 0 min 0 min 41 W/m 0,0 km/h (0 Bft) 95,74 %
17.03.2022 17:44 9,8 C 8,3 C 5,0 C 73 % 1033,7 hPa 0,0 l/m 0 min 0 min 40 W/m 0,0 km/h (0 Bft) 95,74 %
17.03.2022 17:46 9,7 C 8,3 C 5,0 C 73 % 1033,8 hPa 0,0 l/m 0 min 0 min 39 W/m 0,0 km/h (0 Bft) 97,83 %
17.03.2022 17:48 9,7 C 8,3 C 5,0 C 73 % 1033,8 hPa 0,0 l/m 0 min 0 min 36 W/m 0,0 km/h (0 Bft) 97,87 %
17.03.2022 17:50 9,7 C 8,3 C 5,0 C 73 % 1033,7 hPa 0,0 l/m 0 min 0 min 35 W/m 0,0 km/h (0 Bft) 97,87 %
17.03.2022 17:52 9,7 C 8,3 C 5,0 C 73 % 1033,7 hPa 0,0 l/m 0 min 0 min 33 W/m 0,0 km/h (0 Bft) 97,87 %
17.03.2022 17:54 9,6 C 8,3 C 5,0 C 73 % 1033,8 hPa 0,0 l/m 0 min 0 min 32 W/m 0,0 km/h (0 Bft) 100,00 %
17.03.2022 17:56 9,6 C 8,3 C 4,4 C 73 % 1033,8 hPa 0,0 l/m 0 min 0 min 30 W/m 0,0 km/h (0 Bft) 97,87 %
17.03.2022 17:58 9,6 C 8,3 C 4,4 C 73 % 1033,8 hPa 0,0 l/m 0 min 0 min 29 W/m 0,0 km/h (0 Bft) 100,00 %
17.03.2022 18:00 9,6 C 8,3 C 4,4 C 73 % 1033,9 hPa 0,0 l/m 0 min 0 min 26 W/m 0,0 km/h (0 Bft) 100,00 %
17.03.2022 18:02 9,5 C 7,8 C 4,4 C 73 % 1033,9 hPa 0,0 l/m 0 min 0 min 26 W/m 0,0 km/h (0 Bft) 100,00 %
17.03.2022 18:04 9,5 C 7,8 C 4,4 C 73 % 1033,9 hPa 0,0 l/m 0 min 0 min 24 W/m 0,0 km/h (0 Bft) 100,00 %
17.03.2022 18:08 9,4 C 7,8 C 4,4 C 73 % 1034,0 hPa 0,0 l/m 0 min 0 min 22 W/m 0,0 km/h (0 Bft) 98,94 %
17.03.2022 18:10 9,4 C 7,8 C 4,4 C 73 % 1034,0 hPa 0,0 l/m 0 min 0 min 19 W/m 0,0 km/h (0 Bft) 97,83 %
17.03.2022 18:12 9,3 C 7,8 C 4,4 C 73 % 1034,0 hPa 0,0 l/m 0 min 0 min 18 W/m 0,0 km/h (0 Bft) 97,87 %
17.03.2022 18:14 9,3 C 7,8 C 3,9 C 74 % 1034,0 hPa 0,0 l/m 0 min 0 min 17 W/m 0,0 km/h (0 Bft) 97,87 %
17.03.2022 18:16 9,3 C 7,8 C 3,9 C 74 % 1034,0 hPa 0,0 l/m 0 min 0 min 16 W/m 0,0 km/h (0 Bft) 97,87 %
17.03.2022 18:18 9,3 C 7,2 C 3,9 C 74 % 1034,1 hPa 0,0 l/m 0 min 0 min 14 W/m 0,0 km/h (0 Bft) 95,74 %
17.03.2022 18:20 9,2 C 7,2 C 3,9 C 74 % 1034,1 hPa 0,0 l/m 0 min 0 min 13 W/m 0,0 km/h (0 Bft) 97,87 %
17.03.2022 18:22 9,2 C 7,2 C 3,9 C 74 % 1034,1 hPa 0,0 l/m 0 min 0 min 12 W/m 0,0 km/h (0 Bft) 97,83 %
17.03.2022 18:24 9,2 C 7,2 C 3,9 C 74 % 1034,1 hPa 0,0 l/m 0 min 0 min 12 W/m 0,0 km/h (0 Bft) 97,87 %
17.03.2022 18:26 9,2 C 7,2 C 3,3 C 74 % 1034,2 hPa 0,0 l/m 0 min 0 min 14 W/m 0,0 km/h (0 Bft) 95,74 %
17.03.2022 18:28 9,1 C 7,2 C 3,9 C 74 % 1034,3 hPa 0,0 l/m 0 min 0 min 14 W/m 0,0 km/h (0 Bft) 95,74 %
17.03.2022 18:30 9,1 C 7,2 C 3,9 C 74 % 1034,3 hPa 0,0 l/m 0 min 0 min 12 W/m 0,0 km/h (0 Bft) 97,87 %
17.03.2022 18:32 9,1 C 7,2 C 3,3 C 75 % 1034,4 hPa 0,0 l/m 0 min 0 min 12 W/m 0,0 km/h (0 Bft) 95,74 %
17.03.2022 18:34 9,0 C 7,2 C 3,3 C 75 % 1034,4 hPa 0,0 l/m 0 min 0 min 11 W/m 0,0 km/h (0 Bft) 97,83 %
17.03.2022 18:36 8,9 C 7,2 C 3,3 C 75 % 1034,5 hPa 0,0 l/m 0 min 0 min 9 W/m 0,0 km/h (0 Bft) 97,87 %
17.03.2022 18:38 8,9 C 6,7 C 3,3 C 76 % 1034,5 hPa 0,0 l/m 0 min 0 min 9 W/m 0,0 km/h (0 Bft) 95,74 %
17.03.2022 18:40 8,8 C 6,7 C 3,3 C 76 % 1034,5 hPa 0,0 l/m 0 min 0 min 7 W/m 0,0 km/h (0 Bft) 97,87 %
17.03.2022 18:42 8,8 C 6,7 C 3,3 C 76 % 1034,6 hPa 0,0 l/m 0 min 0 min 8 W/m 0,0 km/h (0 Bft) 95,74 %
17.03.2022 18:44 8,8 C 6,7 C 3,3 C 76 % 1034,6 hPa 0,0 l/m 0 min 0 min 7 W/m 0,0 km/h (0 Bft) 95,74 %
17.03.2022 18:46 8,8 C 6,7 C 3,3 C 76 % 1034,7 hPa 0,0 l/m 0 min 0 min 7 W/m 0,0 km/h (0 Bft) 95,65 %
17.03.2022 18:48 8,7 C 6,7 C 2,8 C 76 % 1034,7 hPa 0,0 l/m 0 min 0 min 7 W/m 0,0 km/h (0 Bft) 95,74 %
17.03.2022 18:50 8,7 C 6,7 C 2,8 C 76 % 1034,7 hPa 0,0 l/m 0 min 0 min 7 W/m 0,0 km/h (0 Bft) 95,74 %
17.03.2022 18:52 8,6 C 6,7 C 2,8 C 77 % 1034,7 hPa 0,0 l/m 0 min 0 min 6 W/m 0,0 km/h (0 Bft) 93,62 %
17.03.2022 18:54 8,6 C 6,7 C 2,8 C 77 % 1034,7 hPa 0,0 l/m 0 min 0 min 5 W/m 0,0 km/h (0 Bft) 95,74 %
17.03.2022 18:56 8,5 C 6,7 C 2,8 C 77 % 1034,8 hPa 0,0 l/m 0 min 0 min 2 W/m 0,0 km/h (0 Bft) 93,62 %
17.03.2022 18:58 8,4 C 6,7 C 2,8 C 77 % 1034,9 hPa 0,0 l/m 0 min 0 min 0 W/m 0,0 km/h (0 Bft) 95,65 %
17.03.2022 19:00 8,4 C 6,7 C 2,8 C 77 % 1034,9 hPa 0,0 l/m 0 min 0 min 0 W/m 0,0 km/h (0 Bft) 93,62 %
17.03.2022 19:02 8,3 C 6,7 C 2,8 C 77 % 1034,9 hPa 0,0 l/m 0 min 0 min 0 W/m 0,0 km/h (0 Bft) 95,92 %
17.03.2022 19:04 8,3 C 6,7 C 2,8 C 77 % 1034,9 hPa 0,0 l/m 0 min 0 min 0 W/m 0,0 km/h (0 Bft) 97,87 %
17.03.2022 19:06 8,2 C 6,1 C 2,8 C 77 % 1034,9 hPa 0,0 l/m 0 min 0 min 0 W/m 0,0 km/h (0 Bft) 97,87 %
17.03.2022 19:08 8,2 C 6,1 C 2,8 C 77 % 1035,0 hPa 0,0 l/m 0 min 0 min 0 W/m 0,0 km/h (0 Bft) 97,83 %
17.03.2022 19:10 8,2 C 6,1 C 2,8 C 77 % 1035,0 hPa 0,0 l/m 0 min 0 min 0 W/m 0,0 km/h (0 Bft) 95,74 %
17.03.2022 19:12 8,1 C 6,1 C 2,8 C 77 % 1035,0 hPa 0,0 l/m 0 min 0 min 0 W/m 0,0 km/h (0 Bft) 95,74 %
17.03.2022 19:14 8,1 C 6,1 C 2,8 C 77 % 1035,1 hPa 0,0 l/m 0 min 0 min 0 W/m 0,0 km/h (0 Bft) 95,74 %
17.03.2022 19:16 8,1 C 6,1 C 2,2 C 77 % 1035,1 hPa 0,0 l/m 0 min 0 min 0 W/m 0,0 km/h (0 Bft) 93,62 %
17.03.2022 19:18 8,1 C 6,1 C 2,2 C 77 % 1035,2 hPa 0,0 l/m 0 min 0 min 0 W/m 0,0 km/h (0 Bft) 95,74 %
17.03.2022 19:20 8,0 C 6,1 C 2,2 C 77 % 1035,2 hPa 0,0 l/m 0 min 0 min 0 W/m 0,0 km/h (0 Bft) 95,65 %
17.03.2022 19:22 7,9 C 5,6 C 2,2 C 77 % 1035,2 hPa 0,0 l/m 0 min 0 min 0 W/m 0,0 km/h (0 Bft) 97,87 %
17.03.2022 19:24 7,9 C 5,6 C 2,2 C 77 % 1035,3 hPa 0,0 l/m 0 min 0 min 0 W/m 0,0 km/h (0 Bft) 97,87 %
17.03.2022 19:26 7,8 C 5,6 C 2,2 C 78 % 1035,3 hPa 0,0 l/m 0 min 0 min 0 W/m 0,0 km/h (0 Bft) 97,87 %
17.03.2022 19:28 7,8 C 5,6 C 2,2 C 78 % 1035,3 hPa 0,0 l/m 0 min 0 min 0 W/m 0,0 km/h (0 Bft) 97,87 %
17.03.2022 19:30 7,8 C 5,6 C 2,2 C 77 % 1035,3 hPa 0,0 l/m 0 min 0 min 0 W/m 0,0 km/h (0 Bft) 97,87 %
17.03.2022 19:32 7,7 C 5,6 C 2,2 C 77 % 1035,3 hPa 0,0 l/m 0 min 0 min 0 W/m 0,0 km/h (0 Bft) 97,83 %
17.03.2022 19:34 7,7 C 5,6 C 2,2 C 77 % 1035,3 hPa 0,0 l/m 0 min 0 min 0 W/m 0,0 km/h (0 Bft) 97,37 %
17.03.2022 19:36 7,6 C 5,6 C 2,2 C 77 % 1035,4 hPa 0,0 l/m 0 min 0 min 0 W/m 0,0 km/h (0 Bft) 97,87 %
17.03.2022 19:38 7,6 C 5,6 C 2,2 C 77 % 1035,4 hPa 0,0 l/m 0 min 0 min 0 W/m 0,0 km/h (0 Bft) 97,87 %
17.03.2022 19:40 7,6 C 5,6 C 2,2 C 77 % 1035,4 hPa 0,0 l/m 0 min 0 min 0 W/m 0,0 km/h (0 Bft) 100,00 %
17.03.2022 19:42 7,5 C 5,6 C 2,2 C 78 % 1035,5 hPa 0,0 l/m 0 min 0 min 0 W/m 0,0 km/h (0 Bft) 97,87 %
17.03.2022 19:44 7,4 C 5,6 C 2,2 C 78 % 1035,4 hPa 0,0 l/m 0 min 0 min 0 W/m 0,0 km/h (0 Bft) 97,87 %
17.03.2022 19:46 7,4 C 5,6 C 2,2 C 78 % 1035,5 hPa 0,0 l/m 0 min 0 min 0 W/m 0,0 km/h (0 Bft) 100,00 %
17.03.2022 19:48 7,3 C 5,6 C 2,2 C 78 % 1035,5 hPa 0,0 l/m 0 min 0 min 0 W/m 0,0 km/h (0 Bft) 63,04 %
17.03.2022 19:50 7,3 C 5,6 C 2,2 C 79 % 1035,5 hPa 0,0 l/m 0 min 0 min 0 W/m 0,0 km/h (0 Bft) 92,68 %
17.03.2022 19:52 7,3 C 5,6 C 2,2 C 79 % 1035,6 hPa 0,0 l/m 0 min 0 min 0 W/m 0,0 km/h (0 Bft) 97,87 %
17.03.2022 19:54 7,2 C 5,6 C 2,2 C 79 % 1035,6 hPa 0,0 l/m 0 min 0 min 0 W/m 0,0 km/h (0 Bft) 100,00 %
17.03.2022 19:56 7,2 C 5,6 C 2,2 C 79 % 1035,6 hPa 0,0 l/m 0 min 0 min 0 W/m 0,0 km/h (0 Bft) 100,00 %
17.03.2022 19:58 7,1 C 5,0 C 2,2 C 80 % 1035,7 hPa 0,0 l/m 0 min 0 min 0 W/m 0,0 km/h (0 Bft) 100,00 %
17.03.2022 20:00 7,1 C 5,0 C 1,7 C 80 % 1035,7 hPa 0,0 l/m 0 min 0 min 0 W/m 0,0 km/h (0 Bft) 100,00 %
17.03.2022 20:02 7,1 C 5,0 C 1,7 C 80 % 1035,8 hPa 0,0 l/m 0 min 0 min 0 W/m 0,0 km/h (0 Bft) 100,00 %
17.03.2022 20:04 7,0 C 5,0 C 1,7 C 80 % 1035,8 hPa 0,0 l/m 0 min 0 min 0 W/m 0,0 km/h (0 Bft) 100,00 %
17.03.2022 20:08 6,9 C 5,0 C 1,7 C 80 % 1035,9 hPa 0,0 l/m 0 min 0 min 0 W/m 0,0 km/h (0 Bft) 100,00 %
17.03.2022 20:10 6,9 C 5,0 C 1,7 C 80 % 1035,9 hPa 0,0 l/m 0 min 0 min 0 W/m 0,0 km/h (0 Bft) 100,00 %
17.03.2022 20:12 6,8 C 5,0 C 1,7 C 81 % 1035,9 hPa 0,0 l/m 0 min 0 min 0 W/m 0,0 km/h (0 Bft) 100,00 %
17.03.2022 20:14 6,8 C 5,0 C 1,7 C 81 % 1036,0 hPa 0,0 l/m 0 min 0 min 0 W/m 0,0 km/h (0 Bft) 100,00 %
17.03.2022 20:16 6,8 C 5,0 C 1,7 C 81 % 1036,0 hPa 0,0 l/m 0 min 0 min 0 W/m 0,0 km/h (0 Bft) 100,00 %
17.03.2022 20:18 6,7 C 5,0 C 1,7 C 81 % 1036,0 hPa 0,0 l/m 0 min 0 min 0 W/m 0,0 km/h (0 Bft) 100,00 %
17.03.2022 20:20 6,7 C 5,0 C 1,7 C 81 % 1036,1 hPa 0,0 l/m 0 min 0 min 0 W/m 0,0 km/h (0 Bft) 100,00 %
17.03.2022 20:22 6,6 C 5,0 C 1,7 C 81 % 1036,1 hPa 0,0 l/m 0 min 0 min 0 W/m 0,0 km/h (0 Bft) 100,00 %
17.03.2022 20:24 6,6 C 5,0 C 1,7 C 81 % 1036,1 hPa 0,0 l/m 0 min 0 min 0 W/m 0,0 km/h (0 Bft) 100,00 %
17.03.2022 20:26 6,6 C 5,0 C 1,7 C 81 % 1036,1 hPa 0,0 l/m 0 min 0 min 0 W/m 0,0 km/h (0 Bft) 100,00 %
17.03.2022 20:28 6,5 C 5,0 C 1,7 C 81 % 1036,1 hPa 0,0 l/m 0 min 0 min 0 W/m 0,0 km/h (0 Bft) 100,00 %
17.03.2022 20:30 6,5 C 5,0 C 1,7 C 81 % 1036,2 hPa 0,0 l/m 0 min 0 min 0 W/m 0,0 km/h (0 Bft) 100,00 %
17.03.2022 20:32 6,5 C 5,0 C 1,7 C 81 % 1036,2 hPa 0,0 l/m 0 min 0 min 0 W/m 0,0 km/h (0 Bft) 100,00 %
17.03.2022 20:34 6,4 C 4,4 C 1,7 C 81 % 1036,3 hPa 0,0 l/m 0 min 0 min 0 W/m 0,0 km/h (0 Bft) 100,00 %
17.03.2022 20:36 6,4 C 5,0 C 1,7 C 81 % 1036,3 hPa 0,0 l/m 0 min 0 min 0 W/m 0,0 km/h (0 Bft) 100,00 %
17.03.2022 20:38 6,3 C 5,0 C 1,7 C 82 % 1036,3 hPa 0,0 l/m 0 min 0 min 0 W/m 0,0 km/h (0 Bft) 97,87 %
17.03.2022 20:40 6,3 C 5,0 C 1,7 C 82 % 1036,4 hPa 0,0 l/m 0 min 0 min 0 W/m 0,0 km/h (0 Bft) 95,74 %
17.03.2022 20:42 6,3 C 5,0 C 1,7 C 82 % 1036,4 hPa 0,0 l/m 0 min 0 min 0 W/m 0,0 km/h (0 Bft) 97,87 %
17.03.2022 20:44 6,3 C 5,0 C 1,7 C 83 % 1036,5 hPa 0,0 l/m 0 min 0 min 0 W/m 0,0 km/h (0 Bft) 97,87 %
17.03.2022 20:46 6,2 C 5,0 C 1,7 C 83 % 1036,5 hPa 0,0 l/m 0 min 0 min 0 W/m 0,0 km/h (0 Bft) 93,48 %
17.03.2022 20:48 6,2 C 5,0 C 1,7 C 83 % 1036,5 hPa 0,0 l/m 0 min 0 min 0 W/m 0,0 km/h (0 Bft) 97,87 %
17.03.2022 20:50 6,2 C 4,4 C 1,7 C 83 % 1036,5 hPa 0,0 l/m 0 min 0 min 0 W/m 0,0 km/h (0 Bft) 95,74 %
17.03.2022 20:52 6,1 C 4,4 C 1,7 C 83 % 1036,5 hPa 0,0 l/m 0 min 0 min 0 W/m 0,0 km/h (0 Bft) 95,74 %
17.03.2022 20:54 6,1 C 4,4 C 1,7 C 83 % 1036,5 hPa 0,0 l/m 0 min 0 min 0 W/m 0,0 km/h (0 Bft) 95,74 %
17.03.2022 20:56 6,1 C 4,4 C 1,1 C 83 % 1036,6 hPa 0,0 l/m 0 min 0 min 0 W/m 0,0 km/h (0 Bft) 93,48 %
17.03.2022 20:58 6,1 C 4,4 C 1,1 C 83 % 1036,6 hPa 0,0 l/m 0 min 0 min 0 W/m 0,0 km/h (0 Bft) 95,74 %
17.03.2022 21:00 6,0 C 4,4 C 1,1 C 83 % 1036,6 hPa 0,0 l/m 0 min 0 min 0 W/m 0,0 km/h (0 Bft) 95,74 %
17.03.2022 21:02 6,0 C 4,4 C 1,1 C 83 % 1036,6 hPa 0,0 l/m 0 min 0 min 0 W/m 0,0 km/h (0 Bft) 93,62 %
17.03.2022 21:04 5,9 C 4,4 C 1,1 C 83 % 1036,6 hPa 0,0 l/m 0 min 0 min 0 W/m 0,0 km/h (0 Bft) 93,62 %
17.03.2022 21:08 5,8 C 4,4 C 1,1 C 83 % 1036,7 hPa 0,0 l/m 0 min 0 min 0 W/m 0,0 km/h (0 Bft) 93,62 %
17.03.2022 21:10 5,8 C 4,4 C 1,1 C 83 % 1036,7 hPa 0,0 l/m 0 min 0 min 0 W/m 0,0 km/h (0 Bft) 93,62 %
17.03.2022 21:12 5,8 C 4,4 C 1,1 C 83 % 1036,8 hPa 0,0 l/m 0 min 0 min 0 W/m 0,0 km/h (0 Bft) 97,87 %
17.03.2022 21:14 5,8 C 4,4 C 1,1 C 83 % 1036,8 hPa 0,0 l/m 0 min 0 min 0 W/m 0,0 km/h (0 Bft) 97,87 %
17.03.2022 21:16 5,7 C 4,4 C 1,1 C 83 % 1036,8 hPa 0,0 l/m 0 min 0 min 0 W/m 0,0 km/h (0 Bft) 97,83 %
17.03.2022 21:18 5,7 C 4,4 C 1,1 C 83 % 1036,8 hPa 0,0 l/m 0 min 0 min 0 W/m 0,0 km/h (0 Bft) 100,00 %
17.03.2022 21:20 5,6 C 4,4 C 1,1 C 83 % 1036,9 hPa 0,0 l/m 0 min 0 min 0 W/m 0,0 km/h (0 Bft) 100,00 %
17.03.2022 21:22 5,6 C 3,9 C 1,1 C 83 % 1036,9 hPa 0,0 l/m 0 min 0 min 0 W/m 0,0 km/h (0 Bft) 100,00 %
17.03.2022 21:24 5,6 C 3,9 C 1,1 C 83 % 1036,9 hPa 0,0 l/m 0 min 0 min 0 W/m 0,0 km/h (0 Bft) 97,87 %
17.03.2022 21:26 5,6 C 3,9 C 1,1 C 83 % 1036,9 hPa 0,0 l/m 0 min 0 min 0 W/m 0,0 km/h (0 Bft) 100,00 %
17.03.2022 21:28 5,5 C 3,9 C 1,1 C 83 % 1037,0 hPa 0,0 l/m 0 min 0 min 0 W/m 0,0 km/h (0 Bft) 100,00 %
17.03.2022 21:30 5,5 C 3,9 C 1,1 C 83 % 1037,0 hPa 0,0 l/m 0 min 0 min 0 W/m 0,0 km/h (0 Bft) 100,00 %
17.03.2022 21:32 5,4 C 3,9 C 1,1 C 83 % 1037,0 hPa 0,0 l/m 0 min 0 min 0 W/m 0,0 km/h (0 Bft) 100,00 %
17.03.2022 21:34 5,4 C 3,9 C 1,1 C 83 % 1037,0 hPa 0,0 l/m 0 min 0 min 0 W/m 0,0 km/h (0 Bft) 100,00 %
17.03.2022 21:36 5,4 C 3,9 C 1,1 C 83 % 1037,0 hPa 0,0 l/m 0 min 0 min 0 W/m 0,0 km/h (0 Bft) 100,00 %
17.03.2022 21:38 5,3 C 3,9 C 0,6 C 83 % 1037,0 hPa 0,0 l/m 0 min 0 min 0 W/m 0,0 km/h (0 Bft) 97,87 %
17.03.2022 21:40 5,3 C 3,9 C 0,6 C 84 % 1037,0 hPa 0,0 l/m 0 min 0 min 0 W/m 0,0 km/h (0 Bft) 100,00 %
17.03.2022 21:42 5,2 C 3,9 C 0,6 C 83 % 1037,0 hPa 0,0 l/m 0 min 0 min 0 W/m 0,0 km/h (0 Bft) 100,00 %
17.03.2022 21:44 5,2 C 3,9 C 0,6 C 84 % 1037,1 hPa 0,0 l/m 0 min 0 min 0 W/m 0,0 km/h (0 Bft) 97,87 %
17.03.2022 21:46 5,2 C 3,9 C 0,6 C 84 % 1037,1 hPa 0,0 l/m 0 min 0 min 0 W/m 0,0 km/h (0 Bft) 100,00 %
17.03.2022 21:48 5,2 C 3,9 C 0,6 C 84 % 1037,2 hPa 0,0 l/m 0 min 0 min 0 W/m 0,0 km/h (0 Bft) 100,00 %
17.03.2022 21:50 5,1 C 3,9 C 0,6 C 84 % 1037,2 hPa 0,0 l/m 0 min 0 min 0 W/m 0,0 km/h (0 Bft) 97,87 %
17.03.2022 21:52 5,1 C 3,9 C 0,6 C 84 % 1037,2 hPa 0,0 l/m 0 min 0 min 0 W/m 0,0 km/h (0 Bft) 97,83 %
17.03.2022 21:54 5,1 C 3,9 C 0,6 C 84 % 1037,3 hPa 0,0 l/m 0 min 0 min 0 W/m 0,0 km/h (0 Bft) 97,87 %
17.03.2022 21:56 5,0 C 3,9 C 0,6 C 84 % 1037,4 hPa 0,0 l/m 0 min 0 min 0 W/m 0,0 km/h (0 Bft) 95,74 %
17.03.2022 21:58 5,0 C 3,9 C 0,6 C 85 % 1037,3 hPa 0,0 l/m 0 min 0 min 0 W/m 0,0 km/h (0 Bft) 97,87 %
17.03.2022 22:00 5,0 C 3,9 C 0,6 C 85 % 1037,3 hPa 0,0 l/m 0 min 0 min 0 W/m 0,0 km/h (0 Bft) 97,87 %
17.03.2022 22:02 4,9 C 3,9 C 0,6 C 85 % 1037,3 hPa 0,0 l/m 0 min 0 min 0 W/m 0,0 km/h (0 Bft) 97,87 %
17.03.2022 22:04 4,9 C 3,3 C 0,6 C 85 % 1037,4 hPa 0,0 l/m 0 min 0 min 0 W/m 0,0 km/h (0 Bft) 97,83 %
17.03.2022 22:06 4,9 C 3,3 C 0,6 C 85 % 1037,4 hPa 0,0 l/m 0 min 0 min 0 W/m 0,0 km/h (0 Bft) 97,87 %
17.03.2022 22:08 4,9 C 3,3 C 0,6 C 85 % 1037,4 hPa 0,0 l/m 0 min 0 min 0 W/m 0,0 km/h (0 Bft) 95,74 %
17.03.2022 22:10 4,8 C 3,9 C 0,6 C 85 % 1037,4 hPa 0,0 l/m 0 min 0 min 0 W/m 0,0 km/h (0 Bft) 95,74 %
17.03.2022 22:12 4,8 C 3,3 C 0,6 C 86 % 1037,5 hPa 0,0 l/m 0 min 0 min 0 W/m 0,0 km/h (0 Bft) 97,87 %
17.03.2022 22:14 4,8 C 3,3 C 0,6 C 86 % 1037,5 hPa 0,0 l/m 0 min 0 min 0 W/m 0,0 km/h (0 Bft) 95,74 %
17.03.2022 22:16 4,8 C 3,3 C 0,6 C 86 % 1037,5 hPa 0,0 l/m 0 min 0 min 0 W/m 0,0 km/h (0 Bft) 97,83 %
17.03.2022 22:18 4,8 C 3,3 C 0,6 C 86 % 1037,6 hPa 0,0 l/m 0 min 0 min 0 W/m 0,0 km/h (0 Bft) 97,87 %
17.03.2022 22:20 4,7 C 3,3 C 0,6 C 86 % 1037,6 hPa 0,0 l/m 0 min 0 min 0 W/m 0,0 km/h (0 Bft) 97,87 %
17.03.2022 22:22 4,7 C 3,3 C 0,6 C 86 % 1037,6 hPa 0,0 l/m 0 min 0 min 0 W/m 0,0 km/h (0 Bft) 95,74 %
17.03.2022 22:24 4,7 C 3,9 C 0,6 C 86 % 1037,6 hPa 0,0 l/m 0 min 0 min 0 W/m 0,0 km/h (0 Bft) 93,62 %
17.03.2022 22:26 4,7 C 3,9 C 0,6 C 86 % 1037,6 hPa 0,0 l/m 0 min 0 min 0 W/m 3,2 km/h (1 Bft) 93,62 %
17.03.2022 22:28 4,7 C 3,9 C 0,6 C 87 % 1037,7 hPa 0,0 l/m 0 min 0 min 0 W/m 0,0 km/h (0 Bft) 95,65 %
17.03.2022 22:30 4,6 C 3,9 C 0,6 C 87 % 1037,7 hPa 0,0 l/m 0 min 0 min 0 W/m 0,0 km/h (0 Bft) 95,74 %
17.03.2022 22:32 4,6 C 3,9 C 0,6 C 87 % 1037,7 hPa 0,0 l/m 0 min 0 min 0 W/m 3,2 km/h (1 Bft) 91,49 %
17.03.2022 22:34 4,6 C 3,9 C 0,6 C 87 % 1037,7 hPa 0,0 l/m 0 min 0 min 0 W/m 0,0 km/h (0 Bft) 93,62 %
17.03.2022 22:36 4,6 C 3,9 C 0,6 C 87 % 1037,8 hPa 0,0 l/m 0 min 0 min 0 W/m 3,2 km/h (1 Bft) 91,49 %
17.03.2022 22:38 4,6 C 3,3 C 0,6 C 87 % 1037,8 hPa 0,0 l/m 0 min 0 min 0 W/m 3,2 km/h (1 Bft) 91,49 %
17.03.2022 22:40 4,6 C 3,9 C 0,6 C 87 % 1037,8 hPa 0,0 l/m 0 min 0 min 0 W/m 3,2 km/h (1 Bft) 93,48 %
17.03.2022 22:42 4,6 C 3,9 C 0,6 C 87 % 1037,8 hPa 0,0 l/m 0 min 0 min 0 W/m 6,4 km/h (2 Bft) 95,74 %
17.03.2022 22:44 4,6 C 3,9 C 0,6 C 87 % 1037,8 hPa 0,0 l/m 0 min 0 min 0 W/m 3,2 km/h (1 Bft) 91,49 %
17.03.2022 22:46 4,6 C 3,9 C 0,6 C 88 % 1037,9 hPa 0,0 l/m 0 min 0 min 0 W/m 3,2 km/h (1 Bft) 93,62 %
17.03.2022 22:48 4,6 C 3,9 C 0,6 C 88 % 1037,9 hPa 0,0 l/m 0 min 0 min 0 W/m 0,0 km/h (0 Bft) 93,62 %
17.03.2022 22:50 4,6 C 3,9 C 0,6 C 88 % 1037,9 hPa 0,0 l/m 0 min 0 min 0 W/m 0,0 km/h (0 Bft) 91,49 %
17.03.2022 22:52 4,6 C 3,9 C 0,6 C 88 % 1037,9 hPa 0,0 l/m 0 min 0 min 0 W/m 0,0 km/h (0 Bft) 95,65 %
17.03.2022 22:54 4,6 C 3,9 C 0,6 C 88 % 1037,9 hPa 0,0 l/m 0 min 0 min 0 W/m 3,2 km/h (1 Bft) 93,62 %
17.03.2022 22:56 4,6 C 3,9 C 0,6 C 88 % 1038,0 hPa 0,0 l/m 0 min 0 min 0 W/m 0,0 km/h (0 Bft) 95,74 %
17.03.2022 22:58 4,6 C 3,9 C 0,6 C 88 % 1037,9 hPa 0,0 l/m 0 min 0 min 0 W/m 3,2 km/h (1 Bft) 97,87 %
17.03.2022 23:00 4,6 C 3,9 C 0,6 C 88 % 1038,0 hPa 0,0 l/m 0 min 0 min 0 W/m 0,0 km/h (0 Bft) 97,87 %
17.03.2022 23:02 4,5 C 3,9 C 0,6 C 88 % 1038,0 hPa 0,0 l/m 0 min 0 min 0 W/m 0,0 km/h (0 Bft) 100,00 %
17.03.2022 23:04 4,5 C 3,9 C 0,6 C 88 % 1038,0 hPa 0,0 l/m 0 min 0 min 0 W/m 0,0 km/h (0 Bft) 100,00 %
17.03.2022 23:06 4,5 C 3,3 C 0,6 C 88 % 1038,0 hPa 0,0 l/m 0 min 0 min 0 W/m 0,0 km/h (0 Bft) 100,00 %
17.03.2022 23:08 4,4 C 3,3 C 0,6 C 88 % 1038,0 hPa 0,0 l/m 0 min 0 min 0 W/m 0,0 km/h (0 Bft) 100,00 %
17.03.2022 23:10 4,4 C 3,3 C 0,6 C 88 % 1038,0 hPa 0,0 l/m 0 min 0 min 0 W/m 0,0 km/h (0 Bft) 100,00 %
17.03.2022 23:12 4,4 C 3,3 C 0,6 C 88 % 1038,1 hPa 0,0 l/m 0 min 0 min 0 W/m 0,0 km/h (0 Bft) 97,87 %
17.03.2022 23:14 4,4 C 3,3 C 0,6 C 88 % 1038,1 hPa 0,0 l/m 0 min 0 min 0 W/m 0,0 km/h (0 Bft) 100,00 %
17.03.2022 23:16 4,4 C 3,3 C 0,6 C 88 % 1038,1 hPa 0,0 l/m 0 min 0 min 0 W/m 0,0 km/h (0 Bft) 100,00 %
17.03.2022 23:18 4,4 C 3,3 C 0,6 C 88 % 1038,1 hPa 0,0 l/m 0 min 0 min 0 W/m 0,0 km/h (0 Bft) 100,00 %
17.03.2022 23:20 4,3 C 3,3 C 0,6 C 88 % 1038,1 hPa 0,0 l/m 0 min 0 min 0 W/m 0,0 km/h (0 Bft) 100,00 %
17.03.2022 23:22 4,3 C 3,3 C 0,6 C 88 % 1038,1 hPa 0,0 l/m 0 min 0 min 0 W/m 0,0 km/h (0 Bft) 100,00 %
17.03.2022 23:24 4,3 C 3,3 C 0,6 C 88 % 1038,1 hPa 0,0 l/m 0 min 0 min 0 W/m 0,0 km/h (0 Bft) 100,00 %
17.03.2022 23:26 4,3 C 3,3 C 0,6 C 88 % 1038,1 hPa 0,0 l/m 0 min 0 min 0 W/m 0,0 km/h (0 Bft) 100,00 %
17.03.2022 23:28 4,3 C 3,3 C 0,6 C 88 % 1038,1 hPa 0,0 l/m 0 min 0 min 0 W/m 0,0 km/h (0 Bft) 100,00 %
17.03.2022 23:30 4,3 C 3,3 C 0,6 C 88 % 1038,1 hPa 0,0 l/m 0 min 0 min 0 W/m 0,0 km/h (0 Bft) 100,00 %
17.03.2022 23:32 4,3 C 3,3 C 0,0 C 88 % 1038,1 hPa 0,0 l/m 0 min 0 min 0 W/m 0,0 km/h (0 Bft) 100,00 %
17.03.2022 23:34 4,3 C 3,3 C 0,0 C 88 % 1038,1 hPa 0,0 l/m 0 min 0 min 0 W/m 0,0 km/h (0 Bft) 100,00 %
17.03.2022 23:36 4,3 C 3,3 C 0,0 C 88 % 1038,1 hPa 0,0 l/m 0 min 0 min 0 W/m 0,0 km/h (0 Bft) 100,00 %
17.03.2022 23:38 4,2 C 3,3 C 0,0 C 88 % 1038,1 hPa 0,0 l/m 0 min 0 min 0 W/m 0,0 km/h (0 Bft) 100,00 %
17.03.2022 23:40 4,2 C 3,3 C 0,0 C 88 % 1038,1 hPa 0,0 l/m 0 min 0 min 0 W/m 0,0 km/h (0 Bft) 97,87 %
17.03.2022 23:42 4,2 C 3,3 C 0,0 C 88 % 1038,2 hPa 0,0 l/m 0 min 0 min 0 W/m 0,0 km/h (0 Bft) 52,38 %
17.03.2022 23:44 4,2 C 3,3 C 0,0 C 88 % 1038,2 hPa 0,0 l/m 0 min 0 min 0 W/m 0,0 km/h (0 Bft) 100,00 %
17.03.2022 23:46 4,2 C 3,3 C 0,0 C 88 % 1038,2 hPa 0,0 l/m 0 min 0 min 0 W/m 0,0 km/h (0 Bft) 100,00 %
17.03.2022 23:48 4,1 C 3,3 C 0,0 C 88 % 1038,2 hPa 0,0 l/m 0 min 0 min 0 W/m 0,0 km/h (0 Bft) 100,00 %
17.03.2022 23:50 4,1 C 3,3 C 0,0 C 88 % 1038,2 hPa 0,0 l/m 0 min 0 min 0 W/m 0,0 km/h (0 Bft) 100,00 %
17.03.2022 23:52 4,1 C 3,3 C 0,0 C 88 % 1038,2 hPa 0,0 l/m 0 min 0 min 0 W/m 0,0 km/h (0 Bft) 97,87 %
17.03.2022 23:54 4,1 C 3,3 C 0,0 C 88 % 1038,3 hPa 0,0 l/m 0 min 0 min 0 W/m 0,0 km/h (0 Bft) 95,74 %
17.03.2022 23:56 4,1 C 3,3 C 0,0 C 88 % 1038,3 hPa 0,0 l/m 0 min 0 min 0 W/m 0,0 km/h (0 Bft) 100,00 %
17.03.2022 23:58 4,1 C 3,3 C 0,0 C 88 % 1038,3 hPa 0,0 l/m 0 min 0 min 0 W/m 0,0 km/h (0 Bft) 97,87 %
_ Min-Zeit 23:48 22:04 23:32 15:42 02:04 - - - - 05:42 07:52
Minimum _ 4,1 C 3,3 C 0,0 C 70 % 1020,6 hPa - - - - 0,0 km/h (0 Bft) 37,50 %
_ Max-Zeit 00:00 12:22 12:26 07:16 23:54 05:20 12:08 04:54 12:26 03:44 00:28
Maximum _ 11,1 C 12,2 C 7,8 C 96 % 1038,3 hPa 0,2 l/m 4 min 2 min 434 W/m 35,4 km/h
SO (5 Bft)
100,00 %
Durchschnitt _ 8,9 C 8,2 C 4,7 C 81 % 1029,2 hPa #1,0 l/m #30 min. #1:16 h 124 W/m 11,9 km/h (2 Bft) 97,37 %
© 2022 W. Hausmann